ECMWFFLT2_925_thetae_000.txt.gz
Theta_e
327 328 330 331 326 324 323 321 319 320 329 339 331 324 330 329 320 322 333 343 352 351 347 351 352 350 350 351 354 356 355 353 352 352 351 348 348 347 345 345 345 340 335 334 337 338 337 336 336 336 335 334 334 334 333 333 333 332 330 330 331 332 332
325 326 329 331 325 328 328 319 321 325 324 333 332 324 329 327 321 329 337 346 352 341 337 354 359 355 353 351 352 355 353 352 351 350 349 348 347 345 344 344 341 337 333 334 336 337 336 336 336 335 335 334 334 335 335 334 334 333 332 331 332 333 333
328 335 332 328 326 327 327 324 326 323 319 323 323 322 327 321 318 329 334 341 347 340 345 364 368 364 359 351 350 353 352 351 349 349 348 347 346 345 343 343 342 337 333 333 336 336 336 335 336 336 334 334 335 334 335 335 335 334 333 333 333 333 332
326 335 332 325 325 322 324 329 329 327 330 329 322 322 326 321 321 327 330 337 344 349 362 374 371 369 358 350 351 352 350 349 348 348 347 346 345 344 343 342 343 339 333 333 336 335 336 336 335 336 334 334 335 335 335 336 335 335 334 334 334 333 331
323 328 329 328 330 327 324 325 325 326 328 325 322 321 324 326 329 331 331 329 334 350 366 372 372 366 351 349 352 349 347 348 346 346 346 345 344 343 341 342 341 337 332 334 335 334 335 336 336 336 335 335 336 336 336 337 335 335 334 334 333 332 331
320 328 332 329 329 331 330 326 324 327 325 322 322 320 322 326 328 333 334 323 327 351 361 362 365 357 346 347 348 347 348 347 345 345 344 344 344 342 341 341 339 335 332 333 334 334 336 337 336 336 336 337 337 337 337 337 335 335 334 334 333 331 330
331 331 329 325 325 330 333 330 328 330 331 330 325 322 324 323 319 329 333 321 329 352 356 353 356 350 346 346 345 348 347 345 344 344 343 343 343 341 339 339 337 332 332 333 333 334 335 337 337 336 337 337 337 337 337 336 336 335 334 334 332 331 329
352 338 332 331 331 332 330 329 330 330 331 333 333 335 334 324 318 325 325 320 330 348 353 353 352 346 348 346 345 347 345 344 344 342 344 344 342 341 340 338 336 331 331 332 332 334 336 336 337 337 337 338 337 338 338 336 336 334 333 333 332 330 329
339 334 332 333 335 337 334 335 332 332 334 332 330 333 329 322 324 327 322 322 333 349 356 357 353 346 348 346 343 345 344 345 344 342 343 342 340 341 341 340 340 336 333 332 332 334 336 336 337 337 337 338 338 338 338 336 335 333 332 332 332 331 330
324 323 324 330 337 336 333 337 333 329 334 330 328 327 320 320 327 327 326 329 334 347 357 355 353 350 349 348 342 341 343 345 344 343 341 340 340 341 341 342 343 341 336 332 332 334 336 336 338 337 337 338 338 338 337 337 335 331 330 331 333 332 330
323 329 335 341 347 336 326 332 332 331 334 332 333 330 321 327 331 328 338 340 326 333 352 356 360 353 347 349 345 341 343 344 343 342 338 339 340 339 341 342 341 340 338 334 332 334 336 336 337 337 338 338 338 338 337 336 334 330 329 331 332 332 331
330 344 350 347 343 334 332 334 330 331 336 332 330 327 326 333 328 325 352 357 326 326 347 356 363 359 347 346 344 340 341 342 342 341 339 340 340 339 341 342 341 342 341 337 332 332 335 336 336 338 338 337 337 338 337 336 333 330 328 329 332 332 331
341 344 343 344 340 334 338 339 332 332 336 330 328 335 340 337 324 324 351 358 337 334 345 347 353 356 348 345 343 340 342 342 340 340 340 341 340 341 342 342 341 341 342 339 332 331 334 335 336 338 337 337 338 337 336 335 332 330 329 329 330 331 331
335 339 338 339 335 330 332 336 336 334 334 332 329 338 345 337 329 333 343 345 343 340 340 338 342 344 343 342 344 343 343 343 341 340 341 341 339 341 342 342 340 338 340 337 331 332 334 334 336 338 336 337 337 336 336 334 331 330 329 330 330 329 330
326 336 338 334 333 332 330 332 341 338 331 331 329 333 339 335 334 341 338 336 343 342 338 340 341 342 343 342 341 342 341 341 340 339 340 340 339 340 341 340 338 337 339 335 330 332 334 334 336 336 335 336 336 336 335 333 331 330 330 331 330 329 328
323 331 332 334 337 334 327 330 341 340 333 332 331 333 341 339 336 339 333 331 343 348 346 345 343 342 342 341 340 341 340 340 340 340 340 340 339 340 340 339 338 338 339 336 331 332 333 335 336 335 334 335 335 335 334 332 330 329 329 331 330 329 328
327 335 336 338 334 326 326 335 344 344 339 338 334 334 345 345 335 333 330 333 345 353 348 350 350 344 341 340 340 339 338 339 339 338 339 339 340 341 340 339 338 338 336 333 331 332 334 335 334 333 334 334 334 333 331 330 331 329 329 330 329 330 329
330 341 339 334 326 324 332 347 352 346 338 339 336 333 343 347 340 339 339 338 348 354 351 353 352 346 341 339 335 335 337 337 338 338 338 338 340 341 338 337 338 335 332 331 331 333 334 333 332 333 334 333 333 332 331 330 330 329 329 330 329 330 330
333 335 334 327 327 336 349 353 350 343 335 336 338 339 347 348 343 346 345 339 344 350 346 344 342 338 338 337 335 335 335 335 336 337 337 338 341 340 337 338 337 332 329 330 331 333 333 332 333 333 333 333 333 332 331 332 331 330 331 330 330 330 330
332 330 329 329 334 348 354 346 342 338 333 332 332 334 351 359 351 350 350 347 348 346 341 342 340 336 338 339 336 335 336 336 334 335 337 338 339 339 337 336 334 330 329 331 332 333 332 331 332 333 332 333 332 332 332 332 331 332 332 331 331 331 331
337 337 333 332 333 336 340 339 341 339 336 340 338 331 344 367 361 351 355 359 354 345 342 342 340 338 342 344 338 336 337 337 335 334 336 335 334 335 333 331 332 330 331 333 332 331 331 331 332 332 332 332 333 332 332 332 332 333 332 332 332 332 331
341 341 332 329 327 329 340 350 350 342 337 348 349 332 339 365 362 346 351 360 355 349 344 341 340 343 351 354 348 340 337 338 336 335 333 329 328 330 329 329 330 330 331 333 331 331 331 331 331 331 331 332 333 333 332 332 332 332 333 333 332 332 332
337 331 325 329 328 329 345 356 349 341 336 344 343 329 334 362 363 344 345 354 353 349 344 341 343 346 352 360 355 343 338 338 336 336 335 329 326 328 329 329 330 331 332 332 331 331 332 332 331 331 332 333 333 333 333 333 332 333 333 333 331 331 330
334 329 327 332 330 331 348 357 347 340 336 336 331 324 333 361 363 344 345 352 351 346 341 340 343 347 356 361 353 343 340 338 334 334 335 331 327 326 328 329 331 332 332 332 332 332 333 332 331 331 332 333 334 334 333 332 333 333 332 330 327 327 327
335 331 327 328 330 339 353 354 344 338 332 327 324 325 338 362 362 344 343 348 344 339 340 341 342 345 351 351 346 342 341 338 336 331 327 326 327 328 329 331 330 332 332 332 332 332 332 331 331 332 333 334 333 334 333 333 334 332 328 326 325 325 326
333 335 332 327 332 343 346 340 337 333 325 324 333 337 342 354 360 348 340 341 339 336 337 340 343 345 346 343 345 347 344 343 345 337 327 327 329 328 329 331 331 330 331 331 332 332 332 331 333 333 333 333 333 333 334 333 330 327 325 325 325 325 326
330 332 331 327 333 341 334 329 332 331 326 335 351 349 342 345 353 347 338 339 339 335 336 340 347 352 349 345 345 344 341 343 344 338 331 329 329 327 328 330 331 331 331 330 331 332 332 332 332 333 333 333 333 333 332 329 326 325 326 326 326 326 326
328 328 332 335 341 343 335 332 337 338 340 347 354 351 347 344 342 340 339 338 336 334 336 343 348 349 346 344 342 341 340 341 341 338 333 328 327 328 329 329 331 331 330 330 331 331 331 332 333 334 334 332 330 329 327 326 326 326 327 327 326 326 325
335 338 340 341 342 340 333 335 343 346 343 341 340 343 347 344 338 338 338 338 335 333 337 343 344 344 346 345 343 342 342 341 340 337 333 327 326 327 327 328 330 332 331 330 330 330 331 332 332 333 332 329 328 326 326 326 326 327 327 327 327 326 325
339 336 335 335 338 341 338 336 337 338 338 337 334 335 338 339 339 338 336 338 340 335 337 344 344 343 349 348 344 343 346 345 341 335 330 327 326 326 327 327 329 331 332 330 329 330 330 331 332 332 329 327 326 326 325 326 327 327 327 327 326 325 325
332 334 340 338 336 338 339 336 335 333 336 341 340 337 340 343 343 341 338 339 340 336 339 346 344 343 349 349 346 350 354 355 353 345 332 326 325 325 326 327 329 331 331 329 328 329 330 331 331 330 328 327 326 326 326 326 327 327 327 326 324 323 323
332 337 342 338 335 337 337 336 337 336 337 344 343 339 342 343 340 338 337 336 336 336 339 345 345 347 351 350 347 351 356 359 361 346 328 320 322 324 325 327 330 331 330 329 329 329 330 331 330 328 327 327 326 327 327 327 326 326 326 325 322 322 322
336 338 336 334 336 342 343 339 338 335 335 340 339 333 333 337 337 337 337 336 336 337 341 348 349 346 349 354 354 353 358 363 355 335 322 320 321 322 324 327 330 331 330 329 329 329 329 329 329 327 327 327 327 327 327 327 326 326 325 323 322 322 322
335 340 342 339 334 340 349 345 337 332 331 334 336 333 332 335 337 337 338 338 336 334 335 341 347 347 349 352 356 356 357 352 338 324 320 322 323 323 325 328 329 328 328 327 327 328 328 328 327 328 328 328 328 328 326 326 326 325 325 323 322 322 321
331 332 336 338 333 338 350 345 336 332 329 330 335 336 333 335 335 336 339 338 337 337 333 327 334 352 358 346 344 351 345 331 324 323 323 323 324 324 326 328 328 326 326 326 326 326 327 327 327 328 328 328 327 327 326 326 326 325 324 324 323 322 321
329 325 326 330 329 333 341 339 336 336 332 330 332 332 332 334 334 333 337 339 338 343 343 329 324 336 345 333 330 342 338 323 321 325 325 323 324 324 325 326 327 326 326 326 326 326 326 327 327 327 327 327 326 326 326 326 325 324 323 323 323 322 322
326 323 325 327 327 330 335 336 336 337 335 333 333 333 334 334 332 331 337 341 336 335 344 342 329 325 327 322 321 330 332 324 323 326 325 324 325 324 325 325 326 325 326 326 326 326 326 326 327 327 327 327 327 327 326 324 323 323 321 320 320 320 320

ECMWFFLT2_925_thetae_003.txt.gz
Theta_e
323 324 323 325 322 319 320 318 316 318 323 328 323 318 321 319 314 319 322 320 325 331 333 340 342 342 346 344 342 345 350 354 355 354 354 353 353 352 351 350 348 348 347 344 344 344 343 341 338 336 335 333 332 331 332 333 332 332 332 331 331 331 332
323 322 322 324 321 321 321 316 317 323 322 327 328 320 319 318 314 318 320 318 323 323 322 338 349 347 348 347 345 347 350 355 355 354 354 353 353 352 351 350 348 347 346 343 343 344 342 340 337 336 335 333 331 331 332 333 333 333 333 333 333 333 333
324 324 323 322 321 322 322 319 322 322 316 320 325 320 317 316 315 317 319 320 324 322 322 333 345 350 354 351 349 350 352 355 355 354 354 353 352 352 350 348 346 346 345 343 343 343 341 338 336 335 335 333 332 332 333 334 333 335 335 334 334 333 333
323 325 324 319 320 321 322 322 323 322 321 322 322 319 316 315 316 317 317 319 321 325 334 339 342 354 358 352 351 353 351 354 354 353 353 352 352 352 349 347 345 345 344 342 341 342 341 338 336 335 335 333 334 334 334 335 335 335 335 334 334 333 333
321 322 323 322 322 323 321 319 319 320 321 320 319 319 317 316 318 318 317 315 315 326 348 353 350 355 355 352 354 353 352 353 354 353 353 352 352 351 349 346 344 344 344 342 340 341 340 338 336 336 336 334 334 335 335 335 336 336 336 335 334 333 333
316 319 325 326 325 325 323 321 320 320 321 319 316 317 318 317 318 318 318 315 314 331 355 358 355 351 347 350 353 352 353 353 353 353 352 351 352 350 348 345 343 344 344 342 340 340 338 337 337 337 336 335 335 335 335 336 336 337 336 335 334 333 333
322 323 325 323 321 324 325 323 324 324 325 321 314 314 318 319 318 319 319 315 318 335 347 345 347 345 342 347 350 351 352 351 352 352 350 351 351 349 345 343 343 344 344 342 341 340 338 337 337 337 336 335 335 336 336 336 337 337 336 335 333 332 332
327 324 326 324 322 324 324 323 324 323 323 322 319 323 325 321 318 319 318 315 319 334 340 337 342 343 341 343 346 349 350 349 350 350 350 351 350 347 344 342 343 344 344 342 341 341 340 338 337 336 335 335 335 335 336 337 337 337 336 335 333 332 332
322 320 322 323 322 325 325 325 325 324 326 326 323 329 329 322 320 321 317 314 319 336 345 341 342 343 342 341 342 345 348 349 348 348 349 350 348 345 344 342 343 343 342 342 342 342 342 339 337 337 336 335 335 335 336 338 338 338 336 334 331 331 332
316 316 318 320 322 325 326 327 325 323 327 325 324 326 322 319 323 323 317 315 321 339 348 341 341 346 347 347 343 342 345 346 347 347 347 347 346 345 344 343 343 342 342 343 343 342 342 340 338 336 335 335 335 335 337 338 338 338 336 332 331 331 333
319 323 327 329 330 326 322 325 324 323 326 327 329 326 319 321 324 320 323 328 325 330 340 340 343 349 351 352 347 342 344 344 344 346 345 345 345 343 343 344 343 343 343 343 343 342 342 340 337 336 335 334 335 335 337 337 337 337 335 332 329 330 332
329 333 334 333 333 326 323 325 323 323 326 327 325 323 324 330 322 315 334 348 329 324 337 341 345 351 352 355 351 345 345 343 343 345 344 342 343 342 343 343 342 343 343 343 344 343 342 341 338 335 335 334 335 336 337 337 337 337 335 331 329 328 329
329 329 328 331 333 329 328 329 325 323 326 325 324 326 332 334 322 319 342 354 336 329 336 335 338 345 344 347 350 345 344 343 342 343 342 341 341 341 342 343 342 343 343 343 344 342 342 342 339 336 335 335 335 336 337 337 337 337 335 331 328 328 328
326 326 327 330 329 327 327 327 327 326 326 325 325 329 332 331 327 329 340 343 337 334 334 332 336 340 336 337 341 340 340 342 342 342 342 342 341 341 342 342 341 342 343 344 344 343 343 342 340 337 336 335 336 336 337 337 336 335 334 331 329 329 329
323 326 328 327 326 327 325 325 327 326 325 325 324 326 330 328 330 334 335 334 336 336 334 333 335 338 336 334 336 338 340 342 342 342 342 342 341 341 341 341 341 342 343 343 344 343 343 341 339 336 336 335 336 337 336 335 334 334 334 331 329 329 329
319 325 328 326 327 327 323 323 327 325 323 325 325 328 331 329 332 338 334 327 330 337 340 337 336 338 337 335 337 339 340 341 341 342 343 342 342 342 341 341 342 342 341 341 343 343 343 340 337 335 336 336 336 336 335 332 331 332 333 331 329 329 329
318 325 328 325 325 322 320 324 329 329 328 329 328 328 333 334 334 334 328 325 333 344 345 341 341 342 341 340 340 339 340 341 341 342 343 343 341 341 342 342 342 341 340 340 342 343 341 338 335 335 335 335 335 334 331 329 330 331 331 331 329 329 329
319 326 328 324 321 319 321 329 334 332 330 330 328 329 334 337 335 333 331 334 343 346 343 341 341 341 342 340 337 336 337 339 341 342 342 342 341 341 341 341 341 341 341 341 341 341 338 335 334 335 334 334 334 331 329 329 330 330 330 330 329 329 328
323 327 327 322 319 322 330 335 332 329 328 331 333 335 339 337 335 338 338 336 341 345 341 338 338 338 339 337 334 335 335 336 339 341 341 341 341 340 340 341 341 341 342 342 341 339 336 334 334 335 334 334 333 330 329 330 330 330 330 330 330 329 329
325 325 322 320 322 329 336 335 329 327 330 332 329 329 335 340 337 337 338 336 340 344 338 335 336 336 334 335 335 335 334 334 337 339 340 341 340 340 341 341 341 342 341 340 339 336 334 334 335 334 333 333 332 330 329 330 330 330 331 331 331 331 330
327 323 321 323 325 328 331 334 335 333 333 337 333 325 333 348 343 335 339 342 343 343 338 335 336 335 335 339 340 336 333 333 336 337 338 339 338 340 341 341 341 340 337 336 335 333 333 334 334 334 333 332 331 330 330 331 330 330 331 331 331 331 331
327 325 321 324 323 321 328 339 344 336 329 337 341 328 328 345 346 335 338 344 344 344 341 336 336 337 338 340 342 337 332 332 333 335 336 337 339 341 340 339 340 337 334 333 333 333 333 334 333 332 332 332 331 331 331 331 330 331 332 332 331 331 331
326 324 320 323 323 323 335 346 341 331 325 333 338 326 323 341 350 338 336 341 344 345 341 337 339 341 336 335 339 337 333 332 332 333 335 336 338 339 338 338 337 335 333 333 333 334 334 335 333 332 332 331 330 331 331 331 332 333 332 331 331 331 331
325 323 321 323 323 327 341 345 333 325 326 332 331 319 320 342 354 340 336 343 347 345 341 338 340 342 338 338 338 335 333 332 333 334 335 336 337 337 337 336 334 333 333 333 334 335 335 334 332 332 332 331 331 332 331 332 334 334 332 330 330 331 331
324 323 321 321 324 331 339 337 327 325 328 328 322 319 328 349 354 341 339 343 345 344 340 338 340 343 341 338 334 332 332 332 333 334 335 335 336 336 335 334 333 333 333 333 334 334 333 332 333 333 332 333 332 332 332 334 335 333 331 331 331 331 331
324 324 322 320 323 330 332 328 325 326 326 323 324 334 348 354 350 344 340 339 340 341 340 340 341 340 335 331 331 332 333 335 335 334 334 334 335 335 334 335 334 334 334 334 334 334 333 333 334 333 333 332 332 333 335 335 334 331 332 332 330 328 328
324 324 322 319 321 327 327 326 327 328 326 328 335 346 349 343 341 343 340 337 338 339 339 338 338 336 333 332 333 334 335 338 337 335 335 335 336 335 334 335 335 336 336 335 333 334 335 334 333 333 332 332 333 336 336 335 332 332 332 329 327 327 327
323 321 322 325 329 330 327 328 333 333 332 335 335 336 337 336 337 338 338 338 337 337 338 338 337 337 338 337 337 337 337 337 336 337 337 337 337 337 335 334 336 337 337 336 335 336 335 333 332 332 332 333 334 336 336 333 331 331 328 326 326 327 326
326 325 327 332 336 333 326 327 332 333 332 333 331 330 332 336 336 335 337 338 336 335 337 337 337 339 340 339 338 338 337 336 336 337 338 337 336 336 334 333 335 336 338 338 337 336 334 331 331 331 331 333 335 336 334 331 329 327 325 326 327 327 325
329 329 331 332 331 330 327 327 328 327 326 328 330 331 331 333 334 333 334 336 335 333 335 336 337 339 340 338 337 336 336 337 337 337 338 337 335 335 335 333 332 334 337 337 336 336 334 331 331 331 331 333 335 334 331 327 325 325 325 327 328 326 324
326 327 333 332 328 329 330 327 327 327 327 327 329 331 333 334 333 331 332 334 333 332 334 337 339 339 337 338 338 337 337 339 338 338 339 337 335 334 333 333 332 333 336 336 335 336 335 332 330 330 331 333 333 331 327 325 324 325 327 328 328 326 323
326 328 333 331 327 330 332 329 328 330 329 329 330 331 332 333 332 330 331 332 331 331 333 337 341 339 337 340 341 339 340 345 345 342 339 336 334 331 328 327 330 333 335 336 335 336 337 335 331 330 332 333 331 328 326 325 326 327 328 328 327 326 324
327 329 330 327 326 329 330 328 330 331 330 331 331 330 329 331 330 329 329 329 329 330 332 335 340 340 340 343 341 334 339 350 350 343 337 334 331 329 327 327 329 332 334 335 336 336 336 334 331 330 332 332 330 327 326 326 327 328 328 327 326 326 326
327 328 328 326 325 326 326 324 326 330 330 329 330 330 329 330 330 330 329 327 327 330 331 334 339 341 343 347 344 336 339 348 346 338 335 333 331 329 328 328 331 333 334 334 335 335 334 330 329 329 329 328 328 328 328 327 328 328 328 327 327 326 326
325 324 326 326 325 325 326 325 326 328 328 327 329 331 331 331 330 331 330 328 329 331 331 332 338 344 348 347 342 337 338 340 338 334 333 333 333 330 329 330 332 332 331 331 331 332 330 328 327 327 328 327 327 327 327 327 327 326 326 326 326 325 324
322 321 323 324 324 323 324 324 325 326 326 326 326 328 329 329 328 329 331 333 334 336 335 332 335 341 344 340 338 340 340 336 333 332 329 328 330 329 329 331 333 331 330 330 330 330 328 326 326 327 327 327 327 327 326 326 326 325 324 324 325 324 324
319 320 322 323 324 324 325 325 325 326 326 326 326 326 327 328 328 330 334 337 336 336 336 335 333 334 336 335 335 339 340 333 330 330 329 328 328 329 329 330 331 331 330 329 328 327 326 326 326 326 325 326 326 326 327 326 326 325 323 322 323 323 324

ECMWFFLT2_925_thetae_006.txt.gz
Theta_e
329 327 327 329 325 321 323 322 317 320 327 323 314 313 315 313 311 314 316 315 319 324 330 337 340 341 343 346 346 345 346 350 352 356 358 356 357 354 353 356 356 358 360 356 355 353 350 348 347 347 348 345 343 344 344 342 341 341 339 340 339 339 339
327 328 327 329 326 325 323 317 319 326 327 325 319 314 315 314 312 313 314 314 314 314 320 332 340 336 338 345 349 347 345 348 352 356 358 358 357 353 353 355 355 356 357 354 352 349 348 348 347 348 348 345 344 344 342 342 341 342 341 341 340 340 340
327 328 326 323 325 328 325 322 327 325 316 316 318 315 314 314 312 313 314 313 313 311 316 327 333 334 334 342 351 351 346 348 352 355 358 360 358 354 353 353 354 355 354 351 348 346 345 347 348 349 348 345 344 344 342 341 342 342 342 341 340 340 339
327 327 324 317 319 326 326 326 328 327 320 317 318 316 314 312 312 312 313 312 312 315 322 327 331 334 334 338 352 354 348 348 352 354 357 360 359 355 353 353 354 353 351 348 345 344 344 347 348 348 346 343 343 343 343 342 341 342 342 342 341 341 340
323 320 322 321 321 323 322 320 320 321 322 321 319 318 315 312 312 312 313 312 311 321 334 332 332 335 334 337 347 351 351 350 352 355 357 358 359 356 352 353 352 351 349 345 344 344 345 348 349 346 344 342 340 342 342 342 341 342 342 341 341 340 339
316 319 328 331 328 328 325 321 320 319 321 318 315 316 315 314 313 311 314 312 312 325 339 333 332 335 334 338 342 345 351 351 352 355 357 359 359 356 352 350 349 349 348 345 343 345 345 347 348 344 342 341 340 341 341 339 340 341 340 341 341 341 339
321 326 331 330 328 331 329 327 326 327 324 317 312 312 314 314 314 313 315 312 316 335 347 339 342 346 343 346 348 348 348 350 354 355 356 359 360 356 352 349 349 350 349 346 346 347 348 349 347 344 343 342 340 341 341 339 339 339 337 339 340 341 339
326 328 331 329 328 329 326 327 329 328 325 322 320 320 319 316 313 314 315 311 317 338 351 346 348 350 347 346 349 350 350 351 354 356 356 360 359 358 354 351 351 353 351 350 350 351 351 351 347 346 346 344 342 342 340 338 338 339 338 338 339 340 339
319 320 323 324 324 326 325 327 329 327 329 329 326 326 324 317 314 315 314 311 317 336 349 346 346 345 341 339 343 348 351 352 354 356 358 360 361 361 358 354 353 353 353 354 354 353 353 351 349 348 349 347 345 343 341 337 336 338 339 339 338 338 337
314 314 314 315 320 324 323 327 329 329 330 328 324 322 317 315 318 319 315 312 319 336 346 341 341 342 339 339 340 344 349 353 355 358 359 360 362 361 359 357 355 354 356 357 357 355 353 352 350 350 350 348 345 344 343 338 336 338 339 339 339 338 335
314 315 319 325 326 322 319 323 327 328 330 328 326 319 314 318 323 318 318 319 320 328 337 337 338 337 335 336 339 342 349 353 353 358 359 360 362 361 359 358 355 355 357 357 357 355 353 351 351 350 351 348 346 346 344 340 339 339 339 340 340 338 335
324 326 330 333 329 323 319 322 324 326 330 329 325 319 320 328 320 314 326 334 323 324 335 335 336 337 336 336 337 341 348 352 352 355 357 357 359 359 359 357 356 357 356 356 357 355 352 352 351 351 350 346 346 347 344 340 340 340 339 341 341 339 337
330 334 333 331 330 327 326 325 324 326 327 328 324 322 330 334 319 316 334 340 329 331 336 334 335 337 334 335 339 339 342 348 351 353 355 356 357 356 357 357 356 357 356 356 357 356 353 352 352 350 349 347 349 347 343 341 340 339 340 341 341 339 337
329 332 331 333 330 327 327 326 327 329 327 327 326 326 334 337 326 327 339 338 335 338 336 336 336 333 334 338 340 339 339 343 348 352 354 354 354 354 355 356 355 355 355 356 357 356 354 352 352 351 348 349 349 345 342 341 341 340 340 342 341 339 337
324 329 331 331 329 327 324 325 329 330 327 328 328 329 334 333 331 334 336 333 334 336 335 339 337 334 338 342 339 339 341 341 344 349 350 352 353 353 353 354 355 354 354 355 356 356 355 352 351 349 348 348 347 342 339 339 340 340 341 342 341 339 337
318 326 328 327 329 328 322 322 327 327 326 326 327 331 334 331 330 333 330 325 329 332 335 337 336 335 338 339 339 342 343 344 344 346 349 351 352 352 353 353 353 354 353 353 355 355 353 352 350 348 348 348 345 341 339 338 338 339 341 341 340 339 338
316 325 327 326 325 321 318 322 328 328 329 330 329 332 336 336 332 329 325 325 330 334 334 334 333 333 335 338 341 344 344 346 347 347 348 349 350 351 351 352 352 352 353 353 354 354 351 350 348 346 345 345 344 341 340 339 338 339 341 339 338 338 338
316 323 327 324 320 316 319 330 334 332 332 330 330 330 335 336 334 330 328 330 333 333 331 332 332 333 336 340 344 345 344 343 346 347 347 347 349 350 349 350 351 351 353 354 353 350 349 346 344 343 342 343 343 342 340 339 339 341 340 338 337 337 338
318 325 325 319 316 320 329 337 336 334 333 333 333 332 333 333 332 332 333 333 333 333 332 331 335 339 342 342 343 345 343 341 344 345 346 347 349 348 348 349 350 351 353 353 350 349 346 342 341 343 344 344 342 340 338 337 340 341 340 337 337 337 337
322 322 318 316 321 330 337 337 334 333 335 335 331 329 333 334 332 334 334 333 333 333 331 332 339 343 343 342 344 346 345 343 343 342 344 346 346 347 349 348 349 353 352 350 350 349 346 343 342 343 344 341 339 338 338 337 339 340 338 337 337 337 337
324 316 314 320 325 328 332 333 335 335 333 334 331 325 329 334 333 333 334 334 333 330 330 336 342 344 342 341 343 346 345 343 343 342 342 343 344 346 348 348 350 353 351 349 349 348 346 346 344 341 341 339 338 338 337 337 338 336 335 336 336 337 336
325 318 315 320 319 319 326 332 336 335 331 334 334 327 327 332 333 332 332 333 333 331 333 341 346 344 341 336 338 343 342 340 341 341 341 342 344 346 347 349 351 351 349 350 348 346 346 346 343 342 341 339 339 340 338 337 336 335 334 336 335 335 336
323 319 316 318 315 318 328 335 337 334 331 334 334 325 323 330 332 331 330 331 332 330 334 344 347 341 333 331 337 342 340 339 340 341 342 343 344 347 347 349 351 351 349 349 347 346 348 346 343 344 343 340 340 340 339 337 335 334 334 336 334 335 334
320 320 317 316 317 324 335 338 332 330 330 334 329 319 320 330 333 332 330 331 332 332 338 346 344 337 332 335 340 341 340 340 341 342 344 344 345 348 348 348 350 350 350 350 349 349 348 346 344 346 345 343 341 340 339 338 335 333 335 335 334 333 334
318 320 317 316 320 331 338 334 329 330 332 329 322 320 327 332 333 331 331 331 329 334 342 344 339 336 339 341 341 340 339 340 341 343 345 345 346 348 347 346 348 349 349 350 349 348 347 345 345 346 347 345 343 341 341 338 335 335 336 335 334 335 336
319 321 318 316 322 332 335 329 329 331 327 323 323 330 337 337 333 334 334 332 330 335 342 342 338 337 340 340 340 340 341 342 344 342 343 345 345 345 346 345 347 348 349 348 348 347 347 347 348 349 349 349 346 345 343 341 338 336 336 337 339 339 339
322 321 320 319 322 331 332 329 331 331 327 330 336 340 339 335 335 336 336 335 335 338 342 343 342 342 341 339 341 342 342 344 343 342 343 344 345 345 345 345 345 346 347 347 347 346 344 346 348 349 349 348 347 346 345 344 340 338 340 342 343 341 338
323 318 321 325 329 332 330 330 334 334 333 338 341 338 336 335 335 337 336 336 340 343 345 346 344 342 343 344 345 346 345 344 343 344 345 346 345 344 343 342 342 343 344 346 347 345 343 345 347 347 346 346 346 346 345 344 343 344 346 345 342 338 336
329 325 328 332 334 334 331 330 334 333 333 334 335 334 335 334 333 334 337 337 340 344 346 345 343 342 343 344 346 346 344 344 344 346 345 345 345 344 342 342 343 342 343 346 346 347 348 347 346 345 345 345 345 345 344 345 347 347 345 341 337 335 334
333 332 334 333 332 332 332 330 331 330 330 331 331 333 335 335 334 336 336 336 340 344 344 343 342 341 342 345 346 345 345 346 346 346 346 345 344 343 343 344 344 342 343 345 345 346 347 346 345 343 343 343 343 343 344 346 346 343 340 337 335 334 333
328 330 334 333 330 330 331 330 329 330 328 330 331 333 336 338 337 337 338 339 340 342 342 342 341 341 342 344 346 347 346 346 345 345 346 346 345 344 345 345 343 341 341 341 341 341 342 344 343 342 341 341 342 342 343 343 341 338 337 335 333 333 333
329 330 333 330 328 330 331 329 328 327 326 328 330 331 334 337 336 336 338 340 341 341 341 342 342 340 341 342 344 344 344 344 344 344 344 345 344 344 344 343 341 342 342 341 341 342 343 344 342 341 339 340 341 342 341 338 336 336 335 332 332 333 333
330 330 331 329 328 330 331 329 327 325 324 326 330 331 332 334 335 335 337 338 340 340 339 340 341 340 340 340 338 337 338 341 341 342 344 345 345 344 345 344 344 345 345 345 344 344 343 341 340 339 339 339 339 339 338 336 335 335 333 332 331 332 331
328 329 330 330 329 330 331 328 326 324 324 327 331 331 332 333 335 337 338 338 338 339 338 339 340 340 341 340 336 333 336 339 341 343 344 345 344 344 344 344 344 344 344 342 341 341 340 338 337 338 339 338 336 335 335 335 335 334 333 332 330 329 330
328 327 328 328 328 328 328 326 323 323 325 328 329 329 331 333 334 336 338 338 339 339 339 338 337 338 341 340 335 333 337 341 343 343 343 342 342 341 341 342 342 341 339 339 339 339 338 337 336 336 336 335 335 334 334 334 334 333 333 331 329 328 329
326 325 324 325 326 325 324 323 323 324 328 328 326 326 328 330 331 334 337 338 340 339 338 338 337 337 338 337 335 335 338 340 341 341 340 340 339 337 337 337 338 338 337 337 337 336 336 336 335 335 334 335 334 333 333 333 333 333 333 331 329 328 328
322 322 323 322 322 322 322 323 325 326 327 326 324 325 326 328 330 332 334 337 339 337 335 337 338 337 335 334 336 339 340 340 340 339 338 337 336 334 334 335 336 337 336 335 335 335 335 334 334 333 333 334 334 333 333 333 333 333 332 331 329 328 327

ECMWFFLT2_925_thetae_009.txt.gz
Theta_e
330 329 328 332 326 321 324 323 317 320 328 324 313 311 314 312 312 314 313 314 320 324 330 336 337 335 336 336 336 337 339 341 344 349 354 352 350 351 352 355 352 352 359 361 361 361 355 350 348 347 349 350 347 346 348 347 345 343 341 339 338 338 337
330 329 328 331 329 327 322 317 319 327 329 327 318 312 313 313 312 313 312 312 315 315 320 330 337 334 333 336 336 335 340 345 347 349 351 353 352 351 353 355 355 355 359 359 361 359 353 349 347 348 350 350 347 347 348 347 345 344 342 340 339 339 339
328 331 327 325 327 331 327 322 328 327 317 316 317 313 313 314 313 314 312 312 313 312 317 329 334 334 335 335 336 335 335 341 346 348 350 353 352 351 353 355 354 355 357 359 362 358 352 348 347 349 352 349 346 347 348 346 345 344 343 341 341 340 340
329 329 324 318 320 327 329 329 330 327 319 317 316 314 314 313 313 314 313 312 313 317 325 332 334 335 335 334 337 336 334 337 343 346 349 352 352 353 354 354 354 355 356 358 360 356 349 347 347 351 351 347 345 346 346 345 345 345 344 342 342 341 341
324 321 322 321 320 324 323 321 320 322 321 320 319 318 316 314 312 312 313 312 313 323 333 334 335 336 333 334 337 336 335 335 337 343 348 352 356 355 355 354 354 356 357 358 357 353 348 347 349 349 347 344 343 344 345 344 345 345 344 343 343 342 341
317 320 328 329 327 327 325 320 319 320 320 318 316 316 315 314 312 311 313 312 313 326 336 334 334 334 333 335 336 335 337 336 335 341 346 353 357 356 355 355 353 353 357 357 353 349 347 347 347 347 345 344 341 344 345 343 343 344 342 343 344 343 342
322 327 331 328 328 330 330 328 326 326 325 317 312 311 313 313 313 314 313 311 316 331 336 334 334 335 333 335 335 335 336 337 337 341 345 352 358 358 356 353 351 351 354 354 351 347 345 347 348 346 344 344 341 343 343 342 341 341 340 343 345 345 344
327 329 329 329 329 329 327 327 329 329 327 323 320 318 318 315 313 314 314 310 318 335 338 334 336 336 335 335 336 336 335 335 337 341 348 355 361 361 356 351 350 350 351 351 348 346 347 349 348 346 345 344 342 342 341 340 339 339 338 338 341 344 344
318 320 324 323 325 326 324 327 329 329 328 328 327 324 322 318 314 315 315 311 318 338 344 338 337 337 334 334 335 335 336 335 336 342 351 359 364 363 358 353 351 350 350 351 349 348 349 350 349 348 345 345 342 341 340 338 338 339 339 337 337 341 342
312 313 315 316 320 323 324 327 328 330 329 327 324 319 317 315 315 317 315 312 321 339 345 338 336 337 335 336 334 334 337 337 338 343 351 360 365 365 362 358 354 352 354 352 351 351 350 352 350 348 346 345 344 342 340 337 337 338 339 339 339 340 340
315 314 319 326 325 322 318 321 325 327 329 329 326 317 313 315 317 314 316 318 321 332 340 338 337 337 337 336 336 335 336 337 338 345 352 360 366 366 364 361 356 357 356 353 353 352 352 353 351 348 348 347 344 343 339 337 337 336 338 340 340 340 339
323 325 329 331 329 322 319 320 322 324 328 328 324 316 317 322 316 311 322 328 321 325 336 336 334 336 337 337 336 336 337 337 337 343 351 359 364 365 365 363 359 360 357 354 355 355 356 355 351 351 351 348 347 345 341 337 336 337 338 340 341 342 339
328 331 330 330 329 326 325 324 323 324 326 326 322 320 325 328 317 315 329 336 326 329 335 334 333 335 335 336 336 336 335 338 337 339 348 356 360 363 366 364 362 362 359 358 360 360 359 355 352 353 352 351 349 346 341 339 337 338 340 342 343 342 340
326 329 328 329 329 326 325 326 327 329 328 327 326 326 329 330 324 326 336 335 333 335 336 334 334 338 336 337 337 334 334 335 335 337 345 352 354 360 365 366 364 362 362 362 362 362 359 355 353 353 352 351 348 343 340 338 339 339 341 343 344 342 340
319 327 329 327 328 327 323 323 327 329 328 327 327 327 328 328 327 330 335 330 331 337 338 334 335 339 340 338 336 335 336 335 334 337 342 347 352 355 360 364 364 363 363 363 363 362 358 354 354 353 352 351 346 341 338 338 339 341 342 344 344 342 340
315 325 327 324 328 326 320 319 324 325 324 324 326 328 330 328 326 329 328 324 328 336 336 334 336 338 339 336 334 337 337 336 337 340 343 346 349 352 356 362 364 364 363 364 364 362 358 355 355 353 351 349 342 340 337 337 339 342 342 343 343 343 341
315 323 325 324 324 319 314 318 325 327 327 327 327 329 332 333 331 329 325 326 333 338 334 334 336 335 334 335 334 337 339 340 341 344 346 346 345 349 354 359 363 363 362 363 365 363 359 355 356 352 347 343 339 340 338 338 340 341 341 340 341 343 342
315 321 324 323 320 314 316 326 330 331 331 329 328 329 330 335 336 333 331 332 336 334 333 335 336 334 335 334 335 338 340 341 343 344 346 346 346 349 354 356 359 361 361 363 362 362 360 357 355 349 339 335 338 340 338 340 340 340 340 339 340 343 341
317 320 322 319 316 317 325 333 334 332 331 332 331 332 333 334 335 336 336 335 335 334 334 335 334 334 336 335 337 340 338 341 343 344 346 348 349 351 353 356 357 359 361 361 360 360 359 356 353 346 337 335 339 340 339 341 342 341 340 339 341 341 340
319 318 318 319 322 329 336 339 336 333 335 334 331 328 330 332 333 336 335 333 334 335 334 334 333 334 335 336 337 339 338 341 344 344 344 348 348 350 353 356 357 358 360 360 358 358 358 353 348 344 340 340 341 341 340 341 342 342 341 341 341 341 338
322 316 315 321 327 330 335 337 336 335 334 335 330 326 329 334 335 334 335 336 335 334 332 332 332 334 335 335 334 334 338 343 344 343 344 346 347 351 353 354 355 357 357 357 357 356 354 350 345 343 341 341 341 341 340 341 341 341 340 341 341 339 338
323 318 315 320 321 320 327 335 338 334 332 334 335 329 328 335 335 331 335 336 334 335 333 331 333 337 335 333 334 336 340 342 344 344 344 345 348 351 353 354 355 355 356 358 356 354 350 346 343 342 342 341 341 341 341 340 340 340 340 341 341 339 338
321 318 316 318 317 319 329 338 339 334 330 334 335 327 324 331 335 331 334 335 334 334 334 333 335 336 333 332 335 338 339 340 341 344 345 345 349 352 352 353 355 356 357 357 354 351 348 344 342 343 342 340 340 340 340 340 340 340 340 340 339 339 338
320 319 317 318 319 324 334 338 334 332 334 335 331 321 321 329 333 332 333 335 333 333 333 333 335 334 334 334 336 337 337 339 342 346 348 348 350 352 353 354 356 357 356 355 353 349 346 344 343 343 342 340 340 341 341 341 340 339 340 339 338 338 338
318 318 316 317 322 331 338 334 333 334 334 331 323 320 327 333 334 334 334 333 333 333 334 334 334 335 335 334 338 337 336 341 345 348 350 352 351 351 352 354 357 356 354 354 352 346 345 346 345 343 342 341 342 342 342 343 341 340 339 338 338 338 338
318 319 317 315 321 334 337 332 334 334 329 324 324 332 340 337 333 335 335 333 334 334 334 333 334 334 333 333 337 334 336 343 348 348 350 352 351 351 353 355 356 355 355 353 348 344 345 347 346 343 341 343 345 344 344 344 343 341 339 338 337 338 338
320 317 317 316 322 336 338 332 335 334 330 331 338 342 340 335 334 336 336 334 335 335 335 335 334 333 333 335 337 335 339 347 349 347 349 351 350 352 353 354 354 352 352 350 347 344 345 345 343 342 341 344 347 346 345 344 344 343 340 339 338 338 337
322 315 319 325 331 337 334 333 338 337 335 338 342 338 335 335 335 334 333 334 336 337 337 338 338 336 335 338 340 342 344 347 348 349 350 351 350 352 350 349 351 349 349 350 347 344 342 339 339 341 343 346 349 349 348 347 346 345 342 339 339 339 340
332 328 333 338 338 336 333 335 338 337 335 336 336 335 337 337 337 336 336 336 336 336 338 339 340 340 337 339 343 344 344 345 347 349 349 349 348 346 343 345 347 347 348 350 347 343 341 341 343 346 349 350 351 351 351 348 347 346 344 343 343 344 344
337 337 338 337 335 335 333 333 333 332 332 333 334 336 338 337 338 339 340 339 340 340 340 339 341 340 338 339 342 342 343 346 347 348 348 347 344 342 342 345 345 343 343 345 345 346 347 349 351 351 351 350 350 350 350 349 347 347 347 347 346 345 343
333 333 336 335 334 334 333 333 332 330 330 331 333 336 337 337 337 338 340 341 342 341 342 342 342 341 338 338 342 344 345 348 348 348 348 346 345 346 348 347 345 343 342 342 343 344 347 349 348 347 346 347 347 346 345 344 345 347 348 347 345 342 340
334 335 336 335 333 333 333 332 330 329 329 331 332 333 334 335 336 336 338 339 340 339 341 342 344 343 339 340 343 345 346 348 349 349 348 349 349 350 349 345 343 343 341 340 341 343 345 347 345 343 342 341 340 342 343 340 341 344 345 344 341 340 338
334 336 337 335 333 334 333 331 329 329 329 331 332 331 331 333 335 337 338 338 339 339 339 340 343 343 341 341 343 341 341 344 347 348 349 350 350 348 346 345 345 345 344 344 346 347 346 345 343 342 341 338 334 335 338 337 339 340 341 340 338 336 335
331 335 337 335 334 335 334 330 329 328 329 331 332 330 330 331 331 334 336 337 338 339 338 339 343 342 342 343 343 340 340 343 346 347 348 348 346 345 346 346 348 348 347 346 346 346 344 342 340 341 341 339 335 332 332 336 337 338 338 337 334 332 333
331 332 332 332 333 334 332 329 328 329 331 331 330 329 328 329 329 331 333 336 339 340 339 340 340 341 343 342 338 338 340 343 345 346 346 345 344 344 345 347 346 345 344 344 344 342 341 341 340 339 338 338 336 333 333 336 337 336 336 336 333 331 330
331 329 328 328 329 330 329 327 327 329 331 330 329 328 328 328 327 328 331 334 337 339 340 340 340 341 342 340 336 337 342 344 344 343 341 341 342 342 342 344 344 342 342 343 342 340 339 339 338 336 335 335 335 333 333 335 335 334 335 335 333 332 330
327 326 325 325 326 327 326 326 326 328 329 329 327 328 328 328 328 328 330 333 335 336 338 337 337 338 340 338 337 339 343 343 342 342 341 340 338 338 339 340 340 340 341 340 338 338 338 336 336 335 334 334 335 334 333 334 334 334 335 335 334 333 331

ECMWFFLT2_925_thetae_015.txt.gz
Theta_e
331 329 329 331 326 323 327 326 321 324 332 330 320 318 318 316 317 319 315 318 326 331 339 346 344 347 348 346 348 348 349 352 351 351 352 349 351 352 350 352 354 351 349 349 352 357 361 362 361 361 359 358 357 355 353 352 349 347 345 343 342 342 342
330 329 329 330 330 329 325 319 323 330 329 327 323 318 318 317 316 317 315 315 320 320 327 343 344 343 345 345 350 350 349 352 352 352 351 349 352 353 351 353 354 352 351 351 355 358 361 361 361 360 358 357 356 354 352 351 349 347 345 343 344 343 342
329 331 328 326 329 332 329 324 328 328 319 318 319 315 319 321 317 318 318 316 318 319 325 337 339 341 345 346 352 354 349 353 357 355 352 350 353 354 351 352 354 354 352 352 356 358 360 361 360 358 357 356 354 352 352 350 348 346 344 344 345 342 339
329 330 325 319 322 330 331 329 329 328 321 321 320 317 322 323 318 319 320 317 322 329 336 340 341 343 346 346 352 354 350 354 358 355 353 352 355 356 352 351 353 354 353 353 356 358 359 361 359 357 355 354 353 352 351 350 348 347 345 345 343 338 337
325 322 324 322 322 326 325 322 321 322 322 324 324 321 319 321 320 318 320 319 325 341 350 348 345 345 346 347 351 352 349 351 353 354 354 354 358 360 355 350 351 352 352 353 355 357 359 360 358 355 354 353 352 351 351 350 349 348 347 345 341 337 337
317 319 329 330 328 329 327 323 320 320 322 320 320 320 316 317 321 320 322 321 325 342 354 352 348 344 344 347 350 349 348 349 351 354 356 357 363 365 356 350 350 350 352 352 353 356 359 359 357 354 353 352 351 351 351 350 349 348 346 344 340 337 337
322 327 330 329 329 331 329 328 328 326 326 318 314 319 319 316 318 320 323 323 326 342 358 355 350 345 344 350 351 347 347 349 349 352 357 359 362 362 356 350 350 351 349 350 353 357 359 358 356 353 352 351 350 350 350 350 350 348 345 343 340 338 338
326 330 332 329 330 332 326 327 330 327 327 322 322 333 331 321 317 318 321 321 325 342 359 353 347 345 343 349 353 351 349 350 351 355 362 366 363 359 357 353 352 353 350 351 354 357 360 358 354 352 351 350 350 349 350 350 349 347 345 343 341 340 340
319 320 325 325 325 327 325 328 331 328 330 326 325 334 333 323 319 321 324 323 327 344 355 348 345 346 344 345 348 350 351 351 353 359 372 382 373 360 357 358 356 356 357 358 356 355 359 358 354 352 351 350 350 349 349 350 348 346 345 343 342 341 341
319 320 323 324 323 325 326 329 328 329 331 326 324 323 320 321 323 323 325 325 332 349 355 348 349 350 349 348 345 351 358 357 359 364 376 390 381 364 365 371 364 358 362 363 358 355 356 356 354 351 350 350 349 349 349 349 347 346 345 344 343 342 342
327 331 337 339 332 323 320 323 325 329 329 328 329 319 316 326 330 324 328 333 332 341 350 349 349 349 353 356 353 356 362 360 364 370 374 382 381 370 374 383 372 364 366 365 360 357 355 355 353 350 351 351 349 348 348 347 347 346 345 344 344 343 342
338 344 340 333 332 325 320 321 322 326 329 328 326 319 325 341 329 319 335 344 331 333 346 350 350 350 355 359 356 359 363 361 365 372 372 374 377 373 377 386 379 369 368 367 362 357 355 354 352 349 350 351 348 348 347 347 346 345 345 345 345 344 344
337 338 330 328 331 328 326 327 323 325 327 324 322 324 339 349 329 322 339 345 336 337 343 347 352 353 352 354 356 359 361 362 365 370 371 370 372 371 375 382 381 371 368 368 365 358 354 354 352 350 349 349 348 347 346 345 345 345 345 345 345 345 345
329 329 329 330 329 325 326 327 327 328 329 326 326 327 335 343 339 342 349 346 347 346 340 343 351 355 354 354 355 357 359 364 370 371 370 368 367 368 370 376 376 371 369 369 365 359 355 353 352 351 350 349 348 347 346 345 344 344 345 346 346 346 345
323 328 330 328 327 326 323 323 329 330 328 328 328 327 330 332 334 346 353 346 347 346 341 347 353 356 357 354 354 361 364 365 367 365 362 360 363 367 368 371 371 368 367 367 366 362 356 354 352 351 351 350 347 347 346 344 343 343 344 346 346 345 344
319 326 328 326 326 325 319 319 327 328 326 328 327 329 334 330 327 341 347 339 342 348 349 353 357 357 357 356 360 367 368 366 366 365 362 360 363 368 371 370 369 368 366 365 365 362 356 355 354 351 351 350 347 346 344 343 343 342 341 342 341 342 341
318 324 325 324 322 319 316 319 326 329 329 331 330 332 337 338 337 344 343 339 347 355 354 354 356 354 354 356 359 366 368 366 362 361 360 359 360 364 372 376 373 369 366 362 360 358 355 355 355 353 351 348 343 341 340 341 341 340 339 339 339 340 340
318 325 328 325 320 317 322 332 336 335 334 333 332 332 338 344 347 348 344 344 350 352 350 354 355 350 351 354 356 360 363 363 363 361 358 359 360 360 367 377 376 371 366 360 357 356 355 354 354 352 348 343 339 339 338 339 338 337 339 340 339 339 340
323 329 330 322 317 322 334 343 340 336 335 336 337 340 343 345 348 350 347 345 349 350 349 354 355 354 359 363 362 359 359 366 376 373 367 369 371 367 366 373 378 375 367 359 357 357 355 354 353 349 345 342 339 337 335 335 336 337 339 339 340 341 341
326 324 323 321 325 337 345 343 340 339 342 345 342 341 348 349 348 353 352 347 349 353 352 354 357 358 359 362 364 359 355 360 366 363 362 367 368 368 366 367 374 373 364 357 357 357 355 353 350 346 344 341 338 336 335 336 337 338 338 339 343 344 341
331 321 320 326 329 334 338 339 342 341 340 346 342 335 343 352 350 355 358 354 353 356 354 350 350 353 355 355 356 354 349 352 354 352 352 354 358 364 361 357 362 365 361 359 358 355 354 351 346 344 342 340 337 336 336 336 336 336 336 339 345 345 341
339 326 323 327 322 321 332 345 352 343 334 343 345 336 342 355 351 350 357 359 356 355 353 348 348 359 361 351 347 348 347 347 350 350 347 350 359 364 358 354 358 363 364 363 358 353 352 348 343 341 340 338 336 335 335 334 334 333 334 338 344 346 343
333 324 323 326 320 324 342 352 348 337 333 344 347 338 340 353 353 348 350 355 355 351 352 357 359 362 358 348 344 347 347 345 350 357 359 360 362 358 353 355 360 362 365 364 357 353 350 345 341 340 338 335 333 333 335 334 333 333 334 337 343 346 345
329 326 325 324 323 336 352 347 338 337 340 345 342 331 335 350 355 349 345 348 353 351 352 361 364 358 356 356 351 344 341 345 355 366 368 366 364 358 353 356 359 359 362 363 357 353 348 343 340 339 337 333 331 332 334 333 333 334 334 336 343 346 345
327 326 324 322 327 346 354 340 336 340 339 336 333 333 345 355 352 347 343 344 351 354 355 359 358 351 349 353 350 341 340 348 358 363 358 354 356 354 352 355 358 358 360 361 355 350 346 343 340 338 336 333 330 333 334 334 334 335 334 337 342 346 345
329 329 329 326 332 349 350 337 340 346 343 340 344 355 363 356 346 344 343 343 347 353 354 354 351 346 345 346 345 344 348 355 360 358 353 351 350 349 352 357 358 358 360 360 353 349 345 342 339 338 337 334 333 334 336 336 336 336 336 339 343 345 345
337 336 336 334 338 352 349 341 351 359 356 359 367 368 358 347 343 346 347 347 349 350 349 350 349 348 348 350 351 352 357 363 365 363 362 362 358 354 356 359 358 357 355 349 347 346 344 340 340 339 338 336 336 336 337 337 337 337 340 342 343 344 344
344 339 340 342 350 357 347 344 352 355 356 365 366 357 349 345 345 348 349 351 351 351 351 352 352 351 351 353 355 356 356 359 365 369 370 367 361 357 355 355 355 353 347 341 341 343 343 341 340 339 338 338 339 340 341 341 341 342 344 344 345 345 345
350 349 349 349 353 349 340 342 348 344 343 349 349 346 346 346 345 347 348 349 350 353 355 356 354 354 355 355 354 354 353 356 361 366 366 360 355 352 349 347 348 348 345 342 341 340 342 343 342 341 342 343 345 347 347 346 346 346 345 345 346 346 345
352 352 350 348 349 345 336 336 340 336 337 341 342 343 345 344 344 346 347 348 351 352 354 356 355 354 354 355 358 361 368 370 366 365 361 353 348 346 344 343 344 345 345 344 341 340 343 344 343 344 344 346 348 350 350 348 348 347 347 346 346 344 344
353 353 350 348 349 347 340 335 336 335 335 337 340 344 344 341 341 343 345 348 349 347 349 356 358 357 356 358 363 369 375 370 363 361 359 351 346 345 344 343 344 344 344 343 340 340 344 346 344 343 343 345 349 351 350 349 347 346 347 348 347 346 345
355 354 348 346 345 342 337 337 340 338 336 337 338 340 340 339 339 340 341 343 343 343 347 353 359 363 362 361 364 368 369 363 358 358 354 347 344 344 342 342 343 342 341 341 340 339 342 348 348 345 345 346 346 345 345 344 341 342 346 348 348 348 347
350 352 353 352 349 342 334 336 341 342 339 339 337 337 336 336 337 338 338 338 339 342 345 349 359 365 364 362 361 359 355 354 355 355 351 345 342 343 342 340 340 340 338 338 339 339 341 346 348 345 343 343 343 340 341 341 336 337 344 348 347 346 346
350 354 359 357 352 348 338 335 339 341 340 339 338 337 336 336 337 337 335 336 340 342 341 344 354 362 361 360 360 357 355 353 352 350 348 344 341 342 343 341 339 339 339 338 339 339 339 342 342 337 335 338 340 339 339 338 335 337 343 346 344 343 342
347 346 344 345 347 346 340 338 341 342 341 340 338 335 335 334 335 335 335 336 339 341 340 339 345 357 361 356 355 359 360 354 349 347 346 344 342 342 344 344 343 342 341 340 338 337 336 336 334 332 332 334 335 335 337 337 337 340 343 343 341 339 337
333 332 333 336 340 339 336 337 339 338 338 337 334 332 332 332 331 332 335 338 339 340 340 337 336 348 358 355 354 362 363 352 345 346 346 344 344 346 347 346 343 341 340 338 336 335 335 335 333 331 331 332 333 334 335 335 336 338 339 338 338 337 335
327 330 332 333 335 335 335 334 332 332 334 333 331 334 334 333 334 335 336 338 338 335 336 336 332 337 348 352 352 357 358 350 345 346 347 345 346 349 349 346 343 341 341 339 337 335 335 336 335 332 332 333 335 334 333 333 334 335 335 335 336 335 335

ECMWFFLT2_925_thetae_021.txt.gz
Theta_e
326 324 327 329 323 323 326 324 320 323 331 328 318 318 326 322 316 323 325 324 333 334 336 357 356 342 346 350 348 346 346 347 348 348 349 348 351 353 354 354 354 355 354 352 354 354 355 355 356 358 358 358 359 359 359 359 358 358 358 358 358 357 358
326 324 326 329 325 329 326 317 321 328 327 330 329 321 322 321 319 325 323 318 323 324 331 355 358 349 353 352 348 346 346 348 347 348 348 348 351 352 353 354 354 354 353 351 354 354 354 355 355 357 357 358 358 358 358 358 358 358 357 357 357 357 358
326 327 323 323 324 327 325 321 327 327 318 322 325 320 320 320 320 323 323 324 326 325 336 347 345 355 361 350 347 348 347 347 347 347 347 348 350 351 352 354 353 355 352 350 352 353 353 354 354 356 357 357 358 358 358 358 357 358 357 357 356 356 357
325 326 321 316 319 324 325 326 326 325 323 322 320 319 320 319 321 326 324 322 325 335 353 352 344 364 363 348 349 349 345 347 346 345 347 346 349 352 352 352 353 353 351 349 351 352 353 353 354 355 356 356 357 357 358 358 357 357 357 356 355 355 355
322 322 323 319 319 322 321 320 319 320 323 324 322 322 322 321 324 330 326 320 329 354 370 363 352 359 354 347 350 346 344 346 345 345 346 346 349 351 352 352 352 351 349 348 349 350 352 352 353 354 355 355 357 357 357 358 357 357 356 355 354 354 352
316 321 329 326 324 325 323 321 320 320 320 321 318 317 321 321 322 327 325 317 328 356 368 366 363 355 348 347 347 345 346 344 345 347 345 346 348 349 350 350 349 350 349 347 348 349 350 351 352 352 354 355 356 356 357 357 357 356 355 354 353 351 349
320 325 329 326 323 326 326 324 324 326 328 323 315 316 321 320 319 327 327 317 328 365 378 370 365 353 346 346 345 346 346 343 345 346 343 346 347 348 349 348 348 349 347 345 347 348 349 350 351 352 353 354 356 356 357 356 356 355 354 354 351 349 349
325 326 328 328 328 324 323 325 326 325 328 326 324 330 330 321 319 324 323 318 336 376 380 361 353 348 346 347 347 346 344 344 345 345 345 346 346 347 349 347 348 348 345 345 345 347 348 349 351 352 354 354 355 356 356 356 356 355 354 351 348 348 351
318 320 322 323 325 325 324 330 329 324 330 331 332 337 329 319 322 325 321 321 340 371 367 349 347 349 347 347 346 344 344 345 345 345 347 347 346 348 350 349 350 350 348 349 346 346 347 348 350 352 353 355 355 356 356 356 356 354 352 349 348 349 351
315 316 318 320 324 327 328 332 328 325 328 326 327 328 319 316 324 326 323 328 342 361 355 340 344 349 347 348 346 345 347 346 345 346 346 347 348 349 350 350 350 351 351 351 347 345 346 348 350 352 352 355 355 355 356 356 355 353 350 348 347 348 349
316 318 327 335 335 325 320 324 324 325 326 325 332 328 318 323 329 326 335 340 334 341 347 343 347 348 346 349 347 346 348 346 346 347 346 348 348 348 350 350 350 352 351 351 348 345 344 347 349 351 353 354 354 356 356 355 355 352 349 347 346 347 350
320 325 332 337 333 322 319 321 322 324 325 325 329 323 324 336 327 321 348 356 330 332 349 349 347 347 346 349 348 347 348 346 346 347 347 349 348 348 351 350 349 351 350 351 350 345 343 346 348 351 352 354 355 355 354 354 354 350 347 346 345 346 347
323 327 326 328 329 326 324 324 322 323 324 325 322 322 335 343 323 321 350 356 334 336 347 345 344 344 344 347 346 345 346 346 348 349 350 352 350 349 351 352 352 352 350 351 352 347 344 344 347 349 351 353 355 354 353 353 352 349 347 346 344 344 342
323 323 324 326 325 324 324 324 326 324 325 325 322 327 339 338 330 337 352 350 342 340 340 340 342 342 343 345 344 344 346 348 351 352 352 352 350 349 352 353 353 352 351 349 351 349 347 345 347 349 351 353 353 353 353 352 350 348 347 345 344 342 339
320 321 325 325 323 324 322 321 326 325 324 325 323 329 336 333 334 344 345 342 343 341 340 343 343 346 349 347 345 346 347 348 350 351 351 351 351 352 353 355 354 352 351 350 350 351 347 345 348 349 351 352 352 352 352 350 349 347 345 345 343 340 338
316 320 323 323 325 324 319 320 326 324 325 328 327 334 340 334 338 345 338 334 338 342 349 349 345 346 346 343 345 345 344 346 347 349 351 353 356 357 355 356 356 355 354 354 354 352 346 344 348 350 352 352 350 351 351 349 349 346 344 344 342 338 337
317 323 323 324 323 317 318 331 338 332 334 336 334 343 348 345 350 349 337 334 341 349 352 347 343 345 342 341 344 343 342 346 346 347 352 357 361 362 361 360 359 359 360 357 352 347 344 345 347 349 352 352 350 351 350 348 347 344 343 343 340 336 335
317 326 326 323 319 315 326 348 348 335 337 340 340 343 344 346 353 353 344 343 350 353 349 346 347 347 344 345 345 342 343 348 349 351 357 362 365 365 367 368 366 366 368 360 350 347 347 347 347 350 352 351 351 350 349 348 345 343 342 341 338 336 335
324 330 325 317 316 324 343 354 344 337 336 339 343 343 343 344 350 356 355 348 347 348 345 346 350 350 351 354 354 352 350 348 354 361 365 371 372 371 374 379 380 382 377 361 348 348 351 350 349 350 351 351 350 348 347 347 344 342 341 339 338 337 336
325 324 319 315 320 335 350 347 340 342 340 337 340 338 338 343 344 350 353 345 342 343 340 340 345 348 352 352 352 356 355 351 358 366 370 372 370 371 379 386 388 383 370 356 349 349 351 352 352 351 351 350 349 347 346 345 344 342 341 339 339 338 337
334 331 321 324 330 334 344 345 340 340 338 337 340 336 335 342 344 345 348 343 342 345 341 340 340 340 345 344 339 343 348 351 356 360 359 363 369 371 366 359 357 352 345 343 343 347 351 353 353 352 350 349 347 345 344 344 343 342 341 339 339 338 338
342 337 325 329 332 328 337 349 346 339 334 336 344 340 336 341 344 344 345 342 343 345 343 342 340 338 342 342 340 349 356 355 357 356 350 349 357 356 344 337 337 339 342 347 348 349 352 352 352 351 349 347 346 344 342 342 342 341 340 339 339 339 338
342 341 331 332 332 332 342 350 346 340 336 338 342 336 333 341 345 344 347 346 343 343 342 341 342 342 343 344 350 364 365 355 351 353 351 350 352 344 338 339 343 343 347 351 352 351 351 349 349 349 347 345 344 342 341 342 341 340 340 340 339 338 337
346 346 337 331 333 340 348 347 342 339 338 342 339 329 330 344 348 345 349 352 348 347 346 346 345 345 347 349 350 354 357 357 357 359 361 367 370 360 352 353 353 350 351 353 351 350 349 348 348 346 345 344 342 341 341 341 340 341 340 340 339 337 336
345 343 334 329 336 349 349 342 339 337 340 345 339 331 337 348 347 344 345 347 346 346 347 347 346 345 346 347 347 349 357 365 364 360 357 359 363 360 356 356 357 354 352 351 349 349 349 348 346 345 344 343 341 341 341 340 340 341 340 340 339 337 336
344 346 340 331 338 349 341 337 340 341 342 344 339 339 347 346 343 345 345 343 344 346 347 350 350 348 347 350 354 357 360 362 363 363 364 363 363 360 356 356 355 352 349 347 346 347 347 346 345 344 344 342 340 340 340 339 339 340 339 339 338 336 336
343 350 342 329 336 345 337 341 355 353 346 346 343 345 347 343 341 345 345 345 347 347 347 351 352 353 356 359 363 364 366 367 368 371 375 374 368 361 355 354 353 350 347 344 343 343 344 343 342 342 341 340 339 338 337 337 338 338 338 339 337 336 337
346 350 341 334 344 347 337 343 358 350 342 345 346 343 341 339 341 343 343 346 348 348 350 352 351 354 358 360 363 367 372 375 376 378 379 372 360 353 351 353 353 349 345 342 341 341 340 339 339 340 340 339 337 336 335 335 337 337 337 336 335 336 337
345 347 347 347 351 346 337 337 342 338 336 338 337 335 336 336 337 337 337 339 343 346 349 348 347 352 356 358 362 368 373 379 382 380 373 360 351 348 346 347 349 348 344 342 339 337 337 336 337 337 338 338 336 335 334 334 335 336 335 335 335 336 336
343 342 345 346 345 341 336 333 333 332 333 333 331 331 333 333 333 334 333 334 337 342 346 348 349 352 355 359 361 362 366 372 375 375 366 351 342 342 344 344 346 346 343 340 338 337 336 335 336 336 336 337 336 335 334 335 335 335 334 334 334 334 334
344 344 343 345 344 341 337 334 333 332 331 330 331 332 332 331 331 331 331 332 334 338 342 349 352 353 355 358 359 359 364 367 366 372 374 359 343 341 344 345 344 344 342 339 338 337 336 336 336 335 335 335 336 335 335 336 335 335 334 333 333 333 334
349 347 345 346 344 341 340 336 335 334 332 330 330 331 332 334 333 332 332 334 333 333 337 343 345 347 350 355 359 362 367 369 368 372 372 359 345 342 344 344 344 343 341 339 338 337 337 336 335 335 334 335 335 336 337 338 337 335 333 333 334 334 334
349 342 341 343 340 338 339 338 336 333 330 330 331 331 330 333 336 336 337 337 335 334 335 337 339 342 343 346 353 358 362 368 373 370 357 345 340 341 343 343 343 342 341 340 339 338 337 336 335 335 334 334 335 336 338 340 340 337 335 335 335 335 335
346 343 341 340 339 339 338 335 334 331 328 328 331 331 330 332 332 330 331 330 330 330 331 331 334 337 335 335 341 350 356 364 366 359 345 337 337 340 341 341 341 341 340 340 339 338 337 337 336 336 336 335 336 338 339 341 342 340 339 339 338 337 336
342 344 343 338 337 337 334 331 331 330 327 326 328 328 329 330 328 326 325 326 325 326 326 325 326 330 331 331 335 344 351 351 348 344 341 338 338 339 339 339 340 339 339 340 339 337 338 338 337 337 338 338 339 339 340 341 342 340 339 338 338 338 337
337 337 337 334 331 329 328 328 329 330 328 327 327 327 327 326 325 325 325 325 325 325 325 324 324 327 329 328 331 339 345 342 338 338 340 340 340 339 339 339 338 338 338 339 338 338 338 338 338 339 339 339 340 340 341 340 338 337 335 333 335 337 337
333 330 328 326 326 326 326 326 327 327 328 328 328 329 329 327 326 325 324 325 325 324 325 326 324 324 327 327 328 333 338 339 338 340 342 341 340 340 340 338 337 338 339 338 338 339 339 339 339 339 340 340 340 340 340 338 335 335 334 330 332 336 338

ECMWFFLT2_925_thetae_024.txt.gz
Theta_e
323 323 327 327 324 323 322 322 320 322 329 328 321 320 328 326 322 327 328 328 333 332 338 352 351 347 347 344 345 344 345 353 353 349 348 347 348 349 349 350 351 352 351 351 352 353 354 354 354 355 356 356 356 356 357 357 356 357 356 356 356 356 356
323 324 327 327 324 328 325 318 322 327 325 331 332 323 323 323 321 327 326 322 322 323 335 356 352 346 348 346 345 342 345 353 353 349 347 347 348 348 350 351 350 352 352 350 352 353 353 354 354 355 356 356 357 356 357 357 356 357 357 356 356 356 356
324 325 321 321 322 325 325 323 327 325 318 323 327 321 321 322 322 327 324 323 325 323 333 348 344 345 350 347 346 343 344 352 350 346 346 346 348 348 349 351 351 352 352 350 352 352 353 354 354 355 355 356 357 356 357 357 356 357 356 356 356 355 355
322 324 319 315 318 321 323 326 325 324 323 324 321 321 322 320 323 329 323 321 326 330 337 343 340 349 349 344 349 346 343 347 345 344 346 345 346 348 349 350 351 351 351 350 351 352 353 354 354 355 355 355 357 356 357 357 357 357 357 356 356 355 355
319 320 320 317 318 320 320 319 319 319 322 324 322 322 324 324 326 330 325 321 329 342 347 345 342 349 347 345 350 347 342 343 342 342 345 345 346 347 348 349 350 350 350 349 351 352 353 354 354 354 355 355 356 356 357 357 357 357 356 356 356 355 355
316 321 327 325 323 324 322 319 319 320 320 320 318 318 322 323 323 328 327 319 326 344 349 345 343 345 344 343 346 346 344 342 341 343 344 345 347 346 347 348 348 350 351 349 350 352 352 353 354 354 355 355 356 356 356 357 357 356 356 356 355 355 354
321 325 328 324 321 324 324 321 322 323 324 320 314 315 321 321 319 327 326 316 327 357 360 346 345 349 345 344 344 346 345 342 342 345 344 345 346 345 346 346 347 350 350 348 349 350 351 352 353 353 354 355 355 356 356 356 357 356 356 356 355 355 354
325 325 326 326 324 324 321 322 325 322 322 322 319 324 329 322 319 324 322 317 335 378 379 357 355 357 352 348 345 345 345 346 346 347 347 348 347 347 347 346 348 350 349 349 349 349 350 351 352 353 353 354 354 355 356 356 357 356 356 355 354 354 353
318 319 321 321 320 323 323 325 327 323 325 326 325 330 327 319 321 324 320 320 336 371 379 361 357 360 355 347 343 343 345 348 349 349 349 349 347 347 348 348 352 353 352 352 350 348 349 350 351 352 352 353 353 354 355 356 356 356 356 355 355 353 351
317 316 317 319 322 326 327 329 326 323 326 324 324 326 318 317 325 325 323 326 336 356 364 352 352 362 362 355 346 343 345 347 349 349 348 349 348 348 350 351 353 354 352 353 351 348 347 349 350 351 351 352 352 353 354 355 355 356 355 355 354 352 350
317 318 324 334 336 326 320 324 324 324 326 323 328 325 318 324 330 326 335 340 329 336 352 347 353 362 363 360 351 346 348 347 348 349 348 348 347 346 349 350 352 354 352 352 352 347 346 347 348 349 350 351 351 352 353 354 354 355 355 354 353 351 349
320 323 328 335 336 322 318 323 321 323 326 323 324 320 321 335 328 320 348 360 328 328 351 353 357 363 360 358 351 346 348 345 345 347 348 350 349 347 350 350 351 354 353 352 352 347 344 346 347 348 349 350 351 352 352 353 354 354 354 354 352 350 348
323 326 325 328 331 325 324 326 323 323 325 322 320 320 327 338 323 316 345 360 335 334 352 351 353 359 356 355 350 344 344 344 345 347 349 351 351 349 351 352 352 353 352 352 352 347 343 343 345 346 347 349 350 351 352 353 353 354 354 353 351 349 348
324 323 322 326 326 325 325 325 326 326 325 324 322 323 330 333 326 324 342 351 342 340 346 344 346 348 348 349 347 344 344 346 348 349 349 350 350 349 350 352 351 351 352 352 352 348 343 341 343 345 346 349 350 351 352 352 353 354 353 352 350 348 346
321 321 324 325 321 323 322 320 326 326 323 325 321 321 331 330 328 333 342 342 342 342 345 348 348 348 349 349 349 347 347 349 349 349 349 348 347 349 349 350 351 352 352 351 352 353 346 340 342 344 345 348 350 351 352 353 353 353 351 350 348 347 345
318 321 322 323 321 322 318 315 322 323 320 323 321 324 335 332 328 337 337 332 338 343 347 349 349 350 348 347 350 349 347 350 351 349 348 347 348 350 350 351 354 354 353 353 355 353 345 340 342 343 344 347 349 351 352 352 352 352 349 348 347 345 344
320 322 320 322 320 315 316 320 322 321 323 326 323 330 343 340 334 336 331 328 339 348 345 344 347 349 345 344 348 348 347 350 350 348 349 349 350 351 351 353 355 354 354 353 349 344 340 340 343 343 343 347 348 350 352 351 351 350 348 347 347 345 343
321 326 323 322 318 313 324 340 336 327 325 323 325 336 347 346 345 345 341 341 350 351 344 343 346 346 344 343 344 344 346 348 349 350 352 352 351 352 353 354 354 355 358 352 342 340 341 341 343 343 345 346 347 349 351 351 350 349 347 347 346 344 342
324 328 323 318 318 324 339 348 340 333 329 328 338 348 348 345 348 354 357 354 355 353 345 342 345 345 345 347 348 349 347 344 347 351 353 353 354 355 357 360 359 361 367 358 343 341 343 342 342 344 345 346 347 349 350 350 349 348 347 346 344 343 341
324 323 318 318 326 337 341 340 339 340 337 336 341 341 340 342 344 349 359 359 356 352 343 341 347 348 348 350 349 348 347 346 346 348 350 354 356 357 360 367 368 363 360 355 347 344 346 344 344 344 345 346 348 349 349 349 348 346 345 344 342 341 339
332 330 323 324 331 332 336 341 343 342 338 337 339 336 336 342 341 343 353 354 348 345 343 344 348 347 348 352 347 341 343 345 343 344 347 350 357 364 362 358 355 348 344 345 346 346 348 348 347 346 346 347 349 348 348 348 346 345 344 342 341 339 338
341 339 328 329 329 327 340 353 347 339 337 336 338 338 335 340 342 343 348 346 341 342 343 343 345 346 347 349 343 340 344 346 342 343 345 344 349 356 350 341 340 341 343 345 346 347 349 350 349 349 348 348 348 348 347 346 344 343 342 341 340 339 338
337 335 331 336 335 332 347 360 347 339 338 336 338 336 331 340 348 345 345 344 342 342 344 343 346 346 344 343 340 340 346 350 349 347 349 351 351 348 341 337 340 345 347 347 347 348 349 350 350 350 349 348 348 346 345 345 343 342 341 341 340 339 338
342 340 337 339 338 337 346 350 343 338 337 336 334 330 330 343 351 344 343 347 345 345 349 350 350 349 347 345 342 341 345 352 354 355 359 367 369 358 347 345 345 347 349 347 348 349 349 350 350 350 349 349 347 345 344 343 342 342 341 340 340 339 338
347 345 339 335 338 345 345 341 338 337 335 330 328 329 334 345 350 345 342 344 345 345 348 350 351 349 347 345 343 343 348 355 357 358 357 359 359 354 348 348 350 349 350 349 349 350 350 350 350 349 349 348 345 344 343 341 341 341 341 340 340 339 338
343 343 342 336 338 343 339 334 335 337 335 331 332 336 340 342 345 347 342 340 342 344 345 347 347 345 343 344 346 348 352 357 360 361 359 359 358 354 350 350 351 351 351 350 349 349 349 349 348 348 348 346 344 342 341 340 341 341 340 340 340 339 338
342 342 340 333 335 339 335 335 344 347 343 341 340 342 343 341 343 345 342 342 343 343 344 346 346 346 345 346 347 350 352 355 356 356 358 360 359 355 351 351 351 349 348 346 345 346 347 347 347 347 345 343 342 341 340 340 340 340 340 341 340 339 338
345 346 341 333 336 340 334 336 346 347 343 342 341 341 342 341 341 343 344 345 344 343 345 346 345 346 348 348 350 352 353 354 355 355 354 354 352 348 346 349 351 349 347 345 345 346 346 345 344 343 343 342 340 340 340 339 339 340 340 340 340 339 338
344 347 347 342 340 341 337 337 339 338 337 338 338 338 339 339 339 341 344 346 344 343 344 344 343 344 347 349 353 354 355 358 360 359 354 349 347 344 343 346 349 350 348 346 345 344 342 341 340 339 340 340 340 339 338 338 338 339 339 340 340 338 337
344 343 344 342 341 339 338 337 334 331 332 334 333 333 335 335 335 336 340 344 345 344 345 347 349 348 347 350 355 359 361 363 363 365 362 350 342 341 344 345 347 347 346 344 342 341 339 338 337 337 337 339 340 338 337 337 338 339 339 339 339 337 336
348 345 340 340 342 341 337 335 333 332 332 332 331 332 333 332 332 332 334 336 338 340 343 348 353 352 351 353 357 360 362 363 362 368 372 360 344 338 342 345 344 345 345 342 340 340 338 336 336 336 336 338 338 337 336 336 336 337 338 338 337 336 336
351 350 342 339 340 340 338 335 333 333 333 332 332 333 333 332 330 330 331 331 331 334 337 339 343 344 345 350 357 359 361 363 363 366 367 360 347 340 341 344 344 343 343 341 340 340 339 338 337 336 335 336 337 336 336 335 335 336 336 336 336 335 335
344 343 339 338 338 338 338 335 333 333 332 331 331 330 329 328 326 326 327 326 326 328 330 330 331 333 335 341 349 353 354 357 360 359 353 346 340 339 340 342 342 342 341 341 341 340 339 338 338 337 335 335 336 336 336 335 335 335 335 334 335 334 334
342 341 339 339 339 339 337 335 333 332 329 327 326 326 325 324 324 324 324 324 323 324 325 326 327 330 332 334 338 341 343 346 348 348 343 337 335 338 340 341 342 343 342 341 340 339 339 339 338 337 336 335 335 336 336 336 336 335 334 334 333 333 333
338 337 336 334 335 336 334 332 332 330 327 324 325 325 324 324 324 324 323 324 324 324 323 324 325 327 330 330 331 333 336 338 340 340 339 337 337 338 338 339 340 340 341 341 340 339 339 339 338 338 337 335 335 335 336 336 338 337 335 334 333 334 334
330 328 328 328 328 328 327 328 329 330 327 325 323 323 322 322 322 323 324 324 325 325 324 324 323 324 326 326 326 328 331 333 335 336 337 338 339 339 339 339 338 338 338 339 339 338 338 339 338 338 337 336 335 336 336 336 338 338 337 335 334 334 334
328 326 326 325 325 326 325 324 326 328 328 327 325 325 324 322 322 323 323 324 324 324 324 324 322 321 322 323 323 324 325 326 328 329 330 332 335 338 339 339 338 338 338 338 337 337 337 338 338 337 337 337 336 336 336 337 338 339 337 336 335 335 335

ECMWFFLT2_925_thetae_027.txt.gz
Theta_e
320 321 322 323 321 318 320 320 316 319 326 324 318 316 321 319 316 321 324 323 325 330 332 339 341 339 340 341 340 340 342 345 347 346 347 346 346 347 348 350 350 351 353 355 355 355 354 355 355 355 356 354 354 355 355 354 354 354 353 352 351 352 352
319 320 322 323 322 322 320 315 318 323 324 326 325 318 319 319 315 319 322 319 319 319 323 337 345 340 339 342 341 341 344 346 346 346 348 347 347 347 349 351 352 351 352 354 355 355 355 355 355 356 355 353 353 355 355 355 356 356 354 352 353 353 353
320 320 319 320 321 323 321 319 323 323 316 319 325 320 318 318 316 318 320 320 319 317 320 330 338 341 346 346 345 344 342 344 345 345 348 349 348 348 349 349 350 351 351 354 355 354 355 356 356 356 356 355 356 357 356 356 356 354 353 354 354 353 353
320 319 317 314 316 320 321 322 324 323 318 319 321 319 316 316 316 316 318 319 319 321 328 332 335 346 354 350 350 349 342 342 345 345 346 348 348 349 349 348 349 350 350 352 354 354 355 356 356 357 357 356 357 357 357 357 357 356 356 355 354 354 354
317 317 317 315 316 318 317 317 318 318 320 321 320 320 317 315 316 317 317 317 317 326 340 341 339 347 352 351 353 353 347 342 343 345 346 348 349 349 349 348 349 349 349 350 353 354 355 356 357 357 357 357 357 357 358 358 358 359 358 356 355 355 356
313 316 320 321 320 321 319 317 317 317 319 318 315 317 318 315 316 318 317 314 315 328 343 343 345 347 342 346 349 347 346 342 342 344 344 347 350 348 349 348 347 348 349 350 353 354 356 356 357 356 356 357 357 358 359 359 359 359 359 358 357 356 357
319 320 322 321 319 323 322 320 321 322 321 317 311 313 317 316 316 318 317 313 317 337 352 341 342 346 340 345 349 344 342 343 344 344 341 346 350 348 347 346 346 349 350 352 354 356 357 357 357 357 357 358 358 358 359 359 359 359 359 360 358 357 358
323 321 322 322 320 321 320 319 323 322 320 319 316 321 323 318 315 316 317 314 316 341 368 352 344 347 343 344 347 344 343 344 344 343 343 348 350 349 348 347 349 350 351 354 356 357 359 358 358 358 358 358 358 358 359 359 360 360 359 360 360 359 359
318 318 319 319 318 320 318 320 324 321 323 324 321 329 329 319 316 317 315 313 315 340 369 357 346 343 338 338 340 341 345 347 345 344 345 349 351 350 350 349 351 352 351 356 357 358 360 358 358 359 358 359 358 358 360 359 360 360 360 361 360 358 358
316 315 316 316 317 320 319 322 323 321 324 323 320 323 320 316 322 322 315 313 320 342 360 350 345 345 341 342 341 339 343 345 345 345 346 349 352 351 351 352 353 354 355 357 357 358 359 357 358 359 359 359 358 358 359 359 359 360 360 361 359 358 358
317 317 321 325 324 319 316 319 320 321 322 323 323 321 315 319 325 321 321 323 322 331 346 347 347 347 346 349 347 345 350 349 345 347 347 349 351 350 351 352 353 356 357 357 357 358 358 357 357 359 358 358 358 359 359 358 359 360 360 360 358 357 357
323 324 327 329 326 319 317 318 318 320 322 322 322 317 320 331 322 312 330 346 327 325 343 350 349 351 352 355 352 351 356 353 347 346 346 347 348 348 351 352 353 356 356 357 357 357 357 357 357 358 357 357 358 358 358 358 358 359 360 359 358 358 356
324 326 325 326 325 322 321 320 319 321 322 321 320 319 328 337 321 313 337 357 336 330 341 343 345 351 353 358 357 351 350 350 346 344 345 345 345 346 349 351 354 355 355 356 356 356 357 357 356 357 357 357 358 357 357 358 358 359 359 358 358 358 356
323 325 324 325 324 322 321 321 322 322 322 321 321 323 328 333 327 324 342 354 343 335 336 339 346 350 349 353 354 346 345 347 345 345 345 345 345 346 348 351 353 354 354 355 356 356 357 356 356 356 356 356 356 357 356 357 357 358 358 358 358 358 356
319 322 323 323 323 321 320 320 323 322 322 322 322 324 327 329 330 332 338 342 341 339 339 344 351 353 350 349 347 345 346 347 346 345 345 345 346 346 347 350 351 352 353 354 354 354 355 356 356 355 355 356 355 355 356 357 357 357 357 356 357 357 356
317 321 323 322 321 322 318 317 321 321 319 320 320 323 327 327 329 332 329 327 332 338 341 341 344 348 347 347 349 350 350 347 345 347 348 347 348 348 348 350 351 351 352 353 353 353 354 355 354 354 355 355 355 355 356 356 357 356 356 356 357 356 355
319 323 323 320 319 318 315 317 322 322 322 323 322 324 329 330 329 329 326 325 332 342 343 340 340 343 346 349 350 352 354 352 348 348 349 348 348 348 349 349 349 349 349 350 352 352 352 353 352 352 353 353 353 354 355 355 355 355 355 356 356 355 355
320 323 322 320 317 315 317 324 327 324 323 324 322 322 326 329 331 334 335 338 345 347 342 341 343 345 350 352 348 345 349 350 348 348 349 348 346 347 347 347 348 348 349 349 351 352 352 350 349 348 348 349 350 352 353 354 353 354 354 355 355 355 354
321 324 322 318 317 319 326 335 334 328 324 324 325 329 334 333 333 338 341 342 348 348 341 340 345 348 349 349 345 342 341 342 345 346 346 346 346 346 348 348 348 349 349 349 350 350 349 346 346 347 347 348 349 350 352 353 353 353 354 354 355 354 352
323 323 320 319 323 328 333 337 334 330 328 326 325 328 336 339 337 338 339 339 344 347 342 339 341 341 341 342 343 341 339 340 342 342 342 344 345 346 347 348 350 351 350 349 350 349 347 345 347 349 349 349 350 351 352 353 353 354 354 354 354 353 351
326 322 319 322 326 327 331 336 337 335 333 332 329 326 332 342 341 339 341 342 343 342 339 338 337 336 337 340 341 339 336 337 339 340 341 342 343 345 347 348 352 353 352 351 351 348 347 347 348 349 349 349 351 352 353 353 353 353 353 353 353 352 350
327 324 322 325 323 322 329 336 338 337 334 336 338 333 333 341 341 338 341 343 343 342 339 338 339 339 338 339 341 341 338 336 336 338 339 340 343 346 346 349 352 353 353 354 351 348 350 350 348 347 347 349 352 353 353 353 352 352 353 353 352 350 349
327 325 324 325 322 324 335 340 338 336 334 336 337 329 327 337 341 338 340 340 340 341 340 339 341 340 338 339 342 343 339 336 336 340 342 342 343 346 348 351 353 353 353 353 351 351 352 351 347 344 346 349 352 354 353 352 351 351 352 352 351 349 348
327 328 325 324 325 331 339 339 336 335 334 336 333 323 324 339 343 337 337 337 338 340 340 339 343 344 343 344 343 343 343 342 343 347 348 348 347 349 351 353 354 354 354 354 356 357 354 351 348 346 348 350 353 353 352 351 351 351 351 350 349 348 347
327 328 325 324 327 335 340 336 334 336 334 332 328 325 332 343 342 338 337 335 336 340 341 341 345 348 347 345 345 347 351 352 352 353 352 352 353 353 353 353 353 354 354 354 355 354 351 349 349 348 349 352 353 352 351 351 352 351 350 349 348 346 346
332 331 327 324 328 335 336 333 333 334 331 328 330 335 340 342 340 340 340 337 339 345 347 348 349 348 347 348 349 352 355 356 356 355 353 354 355 354 354 354 353 354 355 352 350 348 347 348 349 348 349 352 352 350 350 351 351 349 348 347 346 345 345
338 336 330 325 329 334 335 334 337 339 337 336 339 341 341 341 342 344 343 343 346 347 348 348 348 348 349 349 349 350 351 352 353 354 354 355 354 354 355 354 352 353 354 351 348 346 345 346 347 347 349 350 350 350 351 350 348 346 346 346 345 344 344
341 340 336 332 335 337 334 334 337 339 337 338 341 343 342 341 342 342 342 343 344 345 346 346 345 346 347 347 348 349 348 348 349 351 352 353 353 354 356 354 353 353 354 351 348 345 343 344 345 346 348 350 350 350 350 347 344 344 345 344 345 344 343
343 346 347 345 342 338 333 332 333 332 331 333 336 339 339 338 338 340 341 340 339 341 343 343 342 343 343 343 345 346 346 347 349 349 350 351 353 354 355 354 353 353 353 352 349 345 342 342 343 344 346 348 350 349 347 343 342 343 344 344 344 344 343
343 341 343 343 342 339 336 332 330 328 329 329 330 333 334 333 334 335 337 338 338 339 341 341 341 342 341 340 341 342 344 346 348 348 349 350 352 354 354 353 352 351 352 351 350 348 344 341 343 345 344 345 348 347 344 342 342 343 343 344 344 343 343
340 341 340 338 340 342 339 335 330 329 328 327 328 330 330 329 330 330 332 334 335 336 339 341 341 341 341 342 343 344 345 346 347 348 349 348 348 349 350 349 349 350 352 351 350 350 346 342 343 344 342 342 344 343 341 341 342 342 343 343 343 342 342
341 344 342 336 335 337 336 334 332 330 328 326 325 327 327 327 327 327 328 329 331 333 336 339 340 341 342 344 344 344 344 345 346 346 347 347 347 347 347 347 347 349 352 351 349 349 347 343 342 341 340 340 340 340 340 341 340 341 343 343 342 342 342
339 340 339 336 335 334 332 332 331 329 328 327 326 325 326 325 325 325 325 326 327 329 331 335 337 338 339 341 342 342 343 344 345 345 345 346 347 347 347 347 346 348 350 349 348 348 346 342 341 341 340 339 339 339 339 339 339 340 341 341 341 341 340
340 339 337 337 339 338 333 330 329 328 328 328 327 326 326 326 326 325 324 323 324 324 326 328 330 332 333 335 335 335 337 340 342 343 345 347 346 345 344 345 345 346 347 346 346 346 344 341 341 341 340 340 339 339 339 338 337 339 340 340 340 340 340
335 334 333 333 337 338 333 329 327 326 326 326 327 326 325 325 325 325 324 324 324 324 324 325 326 328 329 330 330 329 330 332 336 339 341 343 345 345 344 345 346 346 345 344 345 345 343 341 341 341 341 340 339 339 339 338 336 337 339 340 339 339 339
329 327 327 328 329 330 329 327 327 326 325 325 325 324 324 324 323 324 325 325 325 325 324 324 326 327 327 327 328 328 328 329 331 333 335 337 340 342 343 344 345 346 345 344 344 343 341 340 341 341 341 340 339 339 339 339 337 337 338 339 339 338 338
327 326 326 326 326 326 326 325 326 326 325 325 324 324 324 324 323 323 324 325 325 326 325 324 325 326 327 326 327 328 328 328 329 330 331 333 336 338 340 341 343 344 345 344 342 341 340 339 340 341 341 341 340 339 339 339 339 338 339 339 339 338 337

ECMWFFLT2_925_thetae_030.txt.gz
Theta_e
324 322 321 323 320 318 320 318 314 318 327 324 314 313 315 314 315 316 315 318 324 326 334 340 339 338 337 337 338 337 341 348 351 352 352 352 352 353 354 355 357 357 358 359 360 359 359 360 360 360 360 360 361 361 363 364 364 365 365 365 365 365 365
322 323 322 323 322 321 320 314 316 323 328 326 319 314 315 316 315 315 314 316 318 317 322 334 338 336 335 335 336 335 339 345 350 351 351 352 352 353 354 356 357 357 357 359 360 359 358 359 359 360 360 361 361 361 363 364 364 365 365 365 365 365 365
322 324 322 319 321 324 322 319 323 324 317 317 318 315 315 316 315 315 313 313 315 315 319 328 334 335 336 336 335 335 335 343 350 350 351 352 352 352 354 354 357 358 357 358 360 358 358 359 359 360 361 361 361 362 363 363 364 364 364 365 365 365 365
322 322 319 314 316 322 323 322 326 324 318 316 316 316 316 315 314 315 313 312 314 320 326 330 335 338 337 335 337 337 334 340 348 350 350 352 352 353 353 353 355 357 356 357 360 358 358 359 360 360 360 360 361 362 362 363 363 364 364 365 366 365 365
319 317 318 316 316 319 318 317 318 319 319 319 318 317 316 315 314 314 314 313 313 323 334 336 335 337 336 336 337 336 335 334 340 348 351 352 354 354 353 353 354 354 355 357 358 358 358 358 360 360 359 360 360 360 362 363 363 364 364 365 365 365 365
314 315 322 322 320 321 320 317 316 317 318 317 314 315 316 315 313 312 314 313 314 326 338 336 335 336 334 335 335 334 336 334 335 347 351 354 356 355 353 353 352 353 355 356 357 358 358 358 359 359 358 359 359 360 362 362 362 363 363 365 366 365 365
319 322 325 324 321 323 323 321 321 321 320 315 311 312 314 314 313 314 313 312 317 330 337 335 336 337 333 335 335 334 335 334 337 348 349 353 356 354 353 351 350 352 354 356 357 358 359 359 359 360 359 360 360 359 361 361 362 362 362 364 365 366 366
324 325 326 326 325 324 320 321 323 322 320 318 316 317 318 315 313 314 313 312 318 329 340 338 336 336 333 334 334 334 336 335 341 350 351 353 356 356 354 351 350 352 353 357 358 359 361 360 360 361 360 360 360 360 360 361 361 362 362 362 365 366 367
320 321 322 322 322 322 320 320 323 322 322 323 321 320 320 316 313 314 314 311 316 329 343 343 340 338 333 333 333 335 337 338 343 353 354 354 358 358 355 353 353 353 356 360 360 361 364 362 362 363 361 361 361 360 361 360 361 362 362 362 364 367 367
316 316 316 316 318 321 321 322 322 322 322 321 319 315 313 313 315 316 314 313 319 332 342 340 340 341 336 335 335 332 335 342 349 357 358 356 359 359 356 355 355 355 359 362 362 364 365 364 363 364 363 362 361 361 361 361 361 363 363 362 364 366 367
317 317 319 324 324 319 317 319 321 322 322 322 320 313 310 313 315 314 317 319 319 326 336 337 336 338 336 335 335 333 339 348 351 358 359 357 358 357 356 357 357 359 363 364 364 366 366 365 364 364 364 363 362 363 363 361 362 363 363 363 364 366 367
322 324 325 329 328 321 318 319 319 321 323 323 318 312 313 318 314 311 320 326 319 322 333 336 334 335 335 334 333 333 338 345 350 359 360 356 355 356 356 358 360 362 364 365 366 366 366 365 364 365 365 363 364 365 364 363 362 363 364 365 366 367 367
326 328 327 327 328 325 324 323 321 321 322 321 317 316 319 321 314 312 323 327 323 327 332 332 333 335 334 334 334 332 332 339 352 361 360 354 352 355 356 359 361 362 364 366 366 365 366 366 364 365 364 364 365 365 365 364 363 363 365 366 367 368 368
325 328 328 328 326 324 324 323 324 325 323 322 321 321 323 323 319 320 325 327 328 331 331 330 331 333 333 332 334 333 332 340 352 358 358 354 352 353 357 360 361 361 363 366 365 364 365 365 364 365 364 365 365 365 366 365 363 364 366 367 368 368 366
322 326 328 328 327 324 321 322 325 325 324 324 322 322 324 323 321 324 325 324 327 331 331 331 331 332 333 332 333 334 335 340 349 354 354 354 352 352 356 359 361 360 362 364 364 364 364 365 366 365 365 366 366 365 365 365 365 365 366 368 369 367 365
318 324 325 324 326 324 319 318 323 324 321 322 322 323 324 322 321 323 321 318 324 331 330 330 331 331 333 335 335 336 336 341 348 352 354 355 354 354 357 359 360 360 360 363 364 363 363 365 367 366 366 367 365 365 365 365 366 365 365 368 368 367 365
318 323 324 322 322 319 315 318 323 325 325 324 324 325 327 327 324 321 318 319 327 332 329 330 333 329 330 338 340 340 345 352 355 354 353 355 355 355 357 360 360 359 359 361 362 363 364 366 366 365 366 366 366 365 365 365 366 365 365 367 367 367 366
320 322 324 323 320 315 317 324 327 327 326 326 325 325 326 327 327 324 324 327 332 332 330 332 334 331 331 340 345 346 352 358 359 357 354 354 355 355 356 358 359 359 359 360 361 363 364 365 365 364 365 365 365 365 364 365 366 365 365 366 366 367 366
323 323 323 320 318 319 324 332 333 329 329 327 327 328 328 328 328 328 328 330 330 331 332 333 333 334 338 345 351 352 351 352 355 354 353 355 355 354 356 358 358 359 359 359 360 363 363 363 364 363 363 364 365 364 365 366 365 365 366 365 365 366 366
327 326 323 320 322 327 329 334 337 334 334 332 326 324 326 327 328 328 329 330 329 331 334 332 333 341 345 347 350 350 346 346 347 346 349 352 352 353 356 357 357 358 358 358 361 363 362 362 361 361 361 362 363 364 364 364 365 365 365 365 365 366 364
330 327 325 324 323 325 331 337 341 340 339 340 335 328 330 331 329 328 330 330 330 331 331 331 339 345 344 342 343 343 343 344 344 342 344 347 348 350 352 354 357 359 358 359 361 360 360 358 357 357 358 360 363 364 363 363 364 364 364 364 365 364 363
328 327 329 329 321 321 332 340 341 340 337 340 341 335 335 335 329 329 331 332 334 333 330 334 343 343 339 336 337 339 342 343 342 342 343 345 347 349 352 355 358 358 357 357 358 358 357 356 355 356 357 360 363 363 363 363 363 364 364 364 364 363 362
325 325 331 333 323 325 340 343 339 338 335 337 339 331 328 334 337 334 331 331 334 334 332 338 345 342 336 333 334 341 344 341 340 343 345 346 348 351 353 354 355 356 357 358 358 358 358 358 358 359 360 362 363 362 362 362 362 362 363 362 362 363 362
323 326 330 330 325 332 345 341 336 337 336 338 336 325 325 341 349 345 341 337 336 335 337 343 346 340 334 334 338 345 344 340 342 346 348 350 350 351 353 356 359 362 362 360 359 360 361 362 361 360 360 361 362 361 361 361 361 361 362 362 362 362 360
322 324 325 324 326 336 343 338 337 338 336 336 332 327 335 348 349 346 346 345 341 342 344 345 344 340 339 342 345 345 343 345 348 349 350 353 354 352 355 359 361 363 362 360 361 362 363 362 360 359 361 362 362 363 362 361 361 361 361 362 361 360 359
320 322 323 321 326 337 341 337 337 338 334 333 333 337 345 348 346 346 346 343 342 345 346 345 344 344 346 347 348 348 349 352 353 351 351 353 355 356 359 361 361 360 362 362 362 362 362 361 360 361 362 363 364 364 362 361 361 360 360 361 360 359 358
323 323 324 323 327 336 339 337 339 341 338 337 339 344 346 345 345 348 348 345 345 345 345 346 348 350 352 353 352 353 355 356 355 355 354 355 356 357 359 359 359 360 362 361 360 361 361 361 362 363 364 364 364 363 363 362 361 360 360 359 358 357 355
324 321 325 329 333 338 338 337 339 340 339 338 339 342 344 344 345 346 348 351 351 350 351 353 355 357 360 359 359 358 358 357 357 356 355 353 353 354 355 357 358 360 361 361 360 360 360 361 362 363 362 362 362 363 363 361 358 358 358 357 356 354 353
329 328 333 339 341 339 336 337 338 336 335 335 337 339 341 341 342 344 347 350 351 352 355 355 355 357 357 356 356 356 355 356 357 358 357 356 357 358 359 360 360 360 362 362 360 359 359 360 361 361 361 361 363 363 360 357 356 357 356 355 354 352 351
337 337 341 343 343 339 335 334 334 332 330 331 333 336 338 338 339 341 343 345 347 348 350 350 350 351 350 350 351 351 353 355 355 357 358 358 359 362 363 363 363 361 361 361 359 359 358 357 358 359 360 361 362 359 355 354 355 355 353 352 352 350 349
332 334 341 344 343 343 338 333 331 330 329 330 331 334 336 336 336 337 339 342 344 345 346 346 346 345 345 347 349 349 351 352 351 352 353 354 356 359 361 362 361 360 360 359 358 357 356 355 355 355 356 358 357 354 353 353 354 353 352 351 350 349 349
335 338 343 341 338 337 336 333 332 332 331 331 331 331 333 334 335 335 336 337 339 342 344 345 345 344 345 346 347 348 349 350 351 352 352 352 354 356 357 358 358 358 358 358 356 355 355 354 353 353 353 353 353 351 351 351 352 352 351 349 348 349 348
340 341 341 339 336 334 333 333 333 333 333 332 331 330 331 332 332 333 333 334 335 337 340 342 343 343 344 344 345 346 347 350 351 352 352 353 354 354 355 355 356 356 356 355 354 353 353 353 352 352 352 352 351 351 350 350 350 350 349 348 348 348 347
340 340 339 339 339 336 332 331 332 333 332 332 331 330 330 330 331 332 331 330 331 332 334 337 339 340 341 341 342 343 345 349 350 351 351 352 353 353 352 352 353 354 354 354 353 353 353 353 353 352 351 350 350 349 349 348 349 349 347 347 347 346 346
338 336 336 338 338 336 332 330 330 331 332 332 331 331 330 329 329 330 330 329 329 330 331 332 334 336 337 338 338 339 340 343 347 349 349 349 350 350 351 351 352 353 352 352 352 352 352 352 352 351 350 349 348 347 347 347 347 347 346 346 345 345 344
335 332 333 335 334 332 330 328 328 329 332 331 329 329 329 329 328 329 329 330 329 329 330 330 331 332 333 333 334 335 336 338 341 344 346 346 347 348 349 351 353 353 353 352 351 351 351 351 351 350 349 348 347 346 346 345 345 345 345 345 344 343 343
332 331 331 332 331 330 328 327 327 328 329 329 328 328 328 328 327 327 328 328 328 328 329 329 329 330 330 329 330 332 333 333 335 337 338 341 343 345 347 349 351 352 353 352 351 351 351 350 350 350 349 348 346 345 345 344 344 344 344 344 344 343 343

ECMWFFLT2_925_thetae_033.txt.gz
Theta_e
327 324 323 325 321 316 320 320 315 318 327 324 313 312 315 314 312 314 314 314 321 327 333 339 341 340 340 341 339 338 339 340 339 339 345 349 350 351 354 358 359 358 357 359 359 357 357 358 359 359 359 360 361 362 367 371 371 372 373 372 371 370 370
326 325 324 325 324 322 319 314 316 323 326 323 318 313 314 314 313 314 312 312 315 316 321 335 342 340 340 341 338 338 339 338 338 339 340 344 349 353 357 358 360 360 358 359 361 358 358 360 361 362 361 362 362 363 367 371 371 372 373 372 371 370 370
326 328 324 320 322 325 321 319 323 322 314 313 315 312 312 314 314 314 313 312 313 313 318 331 339 339 341 341 339 339 337 337 338 340 343 348 351 353 357 357 359 360 359 360 361 360 359 361 363 363 363 365 364 364 368 369 370 371 372 371 371 371 371
326 326 322 315 316 322 323 322 326 323 316 313 314 313 314 313 313 314 313 312 312 317 327 334 338 340 341 340 341 339 336 337 339 338 342 346 349 353 356 357 359 359 359 360 361 360 360 362 363 364 365 365 365 365 367 368 369 370 371 371 371 372 371
322 319 321 318 317 319 318 315 316 318 319 318 316 315 314 313 312 313 315 313 313 323 335 338 339 340 339 339 341 340 337 336 337 339 341 342 348 354 357 357 358 358 359 360 362 361 359 361 364 364 364 364 363 363 366 367 369 369 369 370 371 371 371
314 317 324 325 323 323 320 315 314 315 317 315 313 313 313 313 312 312 315 312 314 327 338 337 338 338 337 339 339 338 337 337 337 339 338 340 347 354 357 357 356 358 359 359 361 362 359 360 363 363 362 363 361 361 364 366 367 368 367 369 370 371 371
319 323 326 325 324 326 324 322 321 321 319 314 309 308 311 313 313 313 314 312 317 332 339 336 338 339 337 338 338 337 336 336 338 337 337 345 354 357 356 353 354 357 359 360 362 363 361 360 363 363 361 361 360 360 362 364 365 365 365 367 370 371 370
324 326 327 326 326 325 321 321 324 322 320 319 316 316 316 314 312 312 314 311 317 332 340 337 338 338 336 337 337 337 338 336 337 337 339 349 359 361 357 353 354 356 357 363 365 366 366 365 363 363 362 361 360 360 362 363 363 364 363 364 368 371 372
318 319 321 321 321 322 320 321 325 324 323 323 321 320 320 315 311 313 314 311 316 331 341 338 337 337 336 335 336 337 338 337 337 338 341 350 360 365 361 356 357 355 359 367 370 371 372 367 364 365 363 361 361 361 362 361 362 363 363 363 367 370 371
314 313 314 315 316 319 320 322 323 324 324 322 318 315 313 312 313 315 313 311 318 334 339 336 336 338 337 338 337 335 337 337 337 339 347 356 365 368 364 360 359 361 367 371 372 374 372 366 365 366 365 363 362 362 362 360 361 363 363 362 366 370 371
316 316 318 324 324 319 316 318 320 322 324 323 320 313 309 312 314 313 315 318 319 328 335 336 336 337 337 339 337 335 338 337 337 348 360 364 368 368 364 361 361 365 370 371 370 371 370 366 365 366 366 364 363 364 363 361 361 363 364 364 365 370 371
324 325 326 328 328 321 317 319 319 321 323 323 319 313 313 318 313 309 319 326 319 322 334 337 336 336 338 338 338 336 338 338 335 350 366 368 367 367 364 362 363 365 368 370 370 369 369 368 366 367 367 365 365 365 364 362 362 364 365 365 366 370 371
327 330 328 329 328 325 325 323 321 322 322 321 317 315 319 322 313 311 322 327 322 325 333 334 335 338 337 336 338 336 336 338 336 342 358 365 364 365 363 362 364 365 367 370 371 370 369 369 368 368 368 366 366 367 366 364 362 364 366 367 367 371 372
326 328 329 330 327 324 324 324 326 326 325 323 321 320 323 323 319 320 325 326 326 330 332 332 334 336 337 336 338 336 335 338 338 336 345 355 358 361 364 365 365 366 368 371 372 371 371 369 369 370 369 368 368 367 367 365 362 364 367 368 369 371 371
322 327 330 329 326 324 321 322 327 327 325 325 323 322 324 322 321 323 325 323 325 329 332 334 334 336 337 337 336 338 337 337 338 336 337 342 344 346 356 363 366 366 369 372 373 372 371 370 371 371 370 370 369 368 368 366 365 365 368 370 371 371 372
319 326 328 327 326 324 318 318 323 324 323 323 323 324 326 323 320 322 320 317 321 329 332 332 333 335 335 335 335 337 339 338 337 337 335 338 338 339 347 362 369 368 369 372 374 372 370 371 371 371 371 371 369 369 370 368 367 367 370 372 372 372 374
319 325 327 325 324 321 316 318 322 325 326 325 324 326 328 327 325 322 318 319 326 331 330 329 332 333 333 336 335 336 341 342 339 338 337 336 337 338 344 356 365 368 367 369 372 373 371 372 371 370 371 372 370 370 371 370 368 368 371 373 373 374 374
318 323 326 325 321 317 319 325 328 328 328 327 326 326 327 329 330 327 326 328 330 331 329 329 331 332 333 337 336 336 339 341 340 339 337 337 337 338 341 346 355 366 369 368 370 373 372 370 370 370 371 372 371 371 371 371 370 369 371 373 374 375 374
320 323 325 321 318 320 326 331 331 329 328 329 328 329 330 329 329 330 331 331 330 330 331 331 332 333 333 334 336 336 334 336 338 336 336 341 340 338 344 348 353 364 370 368 369 372 370 369 369 370 371 372 371 371 373 372 371 371 372 373 375 375 374
325 323 322 321 323 327 330 332 332 330 333 334 331 328 331 332 331 330 330 331 331 331 330 330 331 332 332 332 334 335 332 333 334 332 332 337 336 338 348 355 362 369 369 367 370 370 369 369 369 369 371 372 372 372 374 373 372 372 372 373 375 375 374
327 321 318 321 324 325 330 336 338 339 339 339 337 331 333 336 333 332 332 330 330 330 330 331 331 331 333 334 333 332 332 334 334 333 333 334 335 339 345 353 365 371 368 367 370 369 368 369 369 369 371 372 373 374 373 373 373 373 373 373 375 375 374
327 321 319 323 322 322 331 339 341 340 337 338 341 335 333 336 334 333 336 337 334 332 330 329 331 333 332 333 334 332 333 334 336 336 338 335 335 342 349 356 366 370 368 368 368 368 369 369 368 369 371 371 373 373 373 373 373 373 373 373 374 374 373
326 322 321 323 321 326 340 345 340 337 335 335 338 329 327 340 349 345 345 348 346 344 340 333 332 333 331 330 333 334 335 336 336 335 339 337 336 344 353 359 365 367 365 366 367 368 370 369 368 370 370 371 373 372 372 371 371 371 371 371 372 373 372
324 323 323 323 323 330 344 344 337 336 335 336 335 324 325 343 354 349 348 351 350 350 350 343 334 332 332 331 332 332 333 334 332 336 343 341 338 343 352 357 363 365 365 367 369 370 369 367 367 367 369 372 372 369 368 368 368 369 369 369 371 371 370
322 322 322 322 325 334 341 339 335 336 334 334 331 328 335 349 351 347 349 350 349 351 351 346 339 335 333 332 333 333 333 334 336 340 345 345 345 349 355 360 364 366 367 369 368 366 365 364 364 366 369 371 369 366 367 367 367 368 368 369 371 370 368
319 322 322 320 324 334 339 336 335 336 335 332 332 338 346 347 344 345 348 348 350 352 350 347 345 342 337 332 331 333 336 342 347 347 347 349 352 355 357 361 364 365 365 365 363 363 363 363 363 367 369 369 367 367 367 367 368 368 369 369 370 368 366
321 320 320 319 323 334 339 336 337 339 338 336 340 344 344 341 342 345 345 346 351 352 350 348 347 344 343 339 337 338 341 346 351 353 354 354 356 358 361 362 362 363 364 363 364 364 364 364 366 368 368 368 368 368 368 368 368 368 368 368 368 366 364
321 316 319 325 330 336 337 336 339 342 341 342 343 343 342 342 344 345 346 348 351 351 351 350 348 346 344 344 344 345 347 349 353 356 357 358 360 362 362 361 361 362 364 366 366 365 365 366 368 368 368 368 368 368 368 367 366 367 367 365 365 363 362
327 324 330 336 338 338 336 336 339 340 340 340 341 341 342 343 343 344 346 348 348 348 348 348 348 350 349 349 351 352 352 355 358 360 360 360 360 360 360 361 363 365 367 368 366 366 367 368 367 367 368 368 368 368 367 365 365 365 364 362 361 361 359
337 339 341 340 339 338 336 336 336 336 336 337 339 341 342 342 342 343 345 347 348 348 348 348 351 354 354 354 355 356 356 357 359 360 362 361 361 362 364 365 366 365 365 366 366 367 366 364 365 366 367 366 367 365 364 363 364 363 361 360 360 359 358
337 339 343 343 340 339 337 335 335 335 335 336 337 339 341 341 341 342 344 347 348 347 348 351 353 354 355 356 357 359 361 362 361 361 362 361 360 362 362 362 361 361 361 362 363 365 365 364 364 364 363 363 363 362 362 362 361 361 360 359 358 357 356
340 341 343 343 341 339 338 337 337 336 335 335 335 337 338 338 338 339 341 345 347 348 347 349 350 352 353 354 355 356 357 359 360 361 361 361 361 361 361 361 362 362 362 362 362 363 364 363 362 361 360 360 360 359 359 359 359 359 358 356 355 355 353
342 344 344 341 339 339 338 337 337 336 335 335 334 334 334 334 336 337 337 339 343 345 344 345 346 348 348 349 350 350 351 353 355 356 357 359 359 361 361 361 361 362 362 361 361 361 360 360 359 359 358 358 357 358 358 357 357 356 354 353 354 353 351
341 342 342 341 339 340 338 336 336 336 333 333 333 332 333 332 332 333 334 334 335 336 337 339 341 344 345 346 346 346 348 351 353 353 353 354 355 357 358 357 357 359 359 358 358 357 357 357 357 357 356 356 356 356 356 356 355 354 353 352 352 350 349
340 340 340 340 340 340 337 336 336 335 333 332 331 331 331 331 330 331 332 333 332 332 332 333 335 337 340 341 342 343 345 347 349 351 351 350 350 353 355 355 356 356 356 357 358 357 356 356 355 354 354 353 353 353 354 354 354 353 352 351 350 349 348
338 337 337 338 338 336 334 333 333 333 332 331 331 330 329 330 329 329 329 329 329 329 329 329 330 333 334 335 336 337 339 341 344 347 350 350 349 350 352 354 355 355 355 356 356 355 355 354 353 352 352 352 351 352 353 353 354 353 352 351 350 348 346
335 335 335 335 334 333 332 331 331 331 330 330 330 330 329 329 328 327 327 326 325 325 326 326 327 329 330 331 332 334 334 334 337 341 344 347 348 349 351 352 353 354 354 353 353 354 353 352 352 352 352 351 351 351 351 351 352 351 350 349 348 346 345

ECMWFFLT2_925_thetae_036.txt.gz
Theta_e
329 327 326 328 322 317 320 319 313 316 324 321 311 309 313 313 312 313 313 314 320 326 331 336 339 340 342 343 341 342 345 348 350 351 350 350 350 349 350 354 357 358 358 358 359 359 360 361 361 361 360 361 362 364 368 370 371 371 370 367 367 367 367
328 328 326 328 326 323 319 313 315 322 324 322 316 310 311 313 313 314 312 311 314 316 321 333 341 340 340 344 342 341 346 347 347 350 352 352 351 351 353 355 359 358 357 357 359 359 358 358 359 361 361 361 362 363 367 369 371 372 371 369 367 368 368
327 330 326 323 325 327 322 318 323 322 313 312 313 310 311 313 313 314 312 312 313 312 317 329 337 339 342 344 344 343 344 344 346 350 356 358 355 353 354 354 358 358 356 356 360 360 358 358 359 362 362 361 362 363 366 369 371 373 372 370 369 368 368
329 327 323 317 318 324 325 322 325 323 315 312 312 311 312 312 313 313 312 312 313 318 325 331 336 343 345 343 347 346 342 342 344 349 356 358 358 358 354 351 354 357 355 355 358 360 359 358 361 362 362 360 361 362 365 368 371 373 373 372 370 368 367
325 321 322 320 319 321 320 317 316 317 317 317 316 314 313 312 312 312 313 312 313 323 335 337 340 345 344 344 348 347 345 341 341 346 351 353 356 357 356 354 353 354 354 355 358 360 359 358 360 362 361 360 359 361 364 367 371 372 374 374 371 369 368
317 319 327 328 326 325 322 317 315 315 316 314 312 312 312 312 311 311 313 312 313 327 339 341 343 344 340 343 346 344 343 341 341 345 348 351 356 356 355 355 352 354 359 359 359 360 360 358 360 361 361 360 358 359 362 365 370 372 373 374 372 368 369
321 327 330 328 327 329 326 324 322 321 319 313 308 308 310 310 310 311 312 310 316 333 346 344 345 346 339 340 345 343 341 342 342 343 346 351 357 358 356 351 350 354 359 362 362 362 362 361 360 360 360 359 358 359 362 364 369 372 372 374 373 369 369
326 328 330 330 329 328 324 323 325 322 319 317 314 314 315 311 309 310 311 310 316 332 349 348 346 348 341 338 343 343 341 343 341 342 350 354 358 361 356 351 352 354 357 364 368 368 366 362 361 362 361 361 361 360 362 364 368 371 371 372 372 370 370
319 320 322 322 324 325 323 324 326 324 322 323 320 319 319 314 310 311 311 310 315 330 350 352 344 343 340 337 339 340 342 344 342 348 356 359 362 363 359 358 360 359 359 366 374 375 371 365 363 365 364 363 363 362 362 364 366 369 369 369 371 371 370
314 314 313 314 318 321 322 324 325 325 325 322 317 314 312 311 314 315 312 311 317 331 345 345 339 340 342 343 339 338 343 344 350 363 362 360 367 368 366 368 367 365 367 372 378 380 373 367 366 367 366 365 364 363 362 363 364 366 367 366 369 372 373
315 316 319 324 324 319 317 320 322 324 325 324 320 312 308 311 314 313 316 320 320 327 338 340 339 339 340 346 343 342 352 350 351 368 369 367 373 372 372 376 372 374 382 380 380 381 375 368 366 367 367 365 364 364 362 362 362 364 365 365 367 372 373
321 326 328 330 327 320 318 318 320 322 324 324 319 312 312 318 313 308 322 334 322 322 334 340 342 342 340 347 345 342 355 353 346 365 376 372 373 374 376 380 378 382 389 387 383 381 378 370 366 368 368 365 365 364 361 360 361 363 364 364 366 371 372
325 329 329 331 329 326 325 323 321 322 322 321 317 315 319 323 315 311 326 339 329 327 334 335 340 345 341 344 345 339 347 348 345 364 374 368 368 372 374 379 382 383 388 391 387 382 380 374 368 369 368 366 366 363 362 360 359 362 364 364 366 370 371
325 328 328 331 329 326 325 324 324 324 324 322 320 321 323 323 322 321 328 335 333 331 333 332 336 340 339 343 346 341 342 342 345 359 363 357 360 368 372 376 380 381 384 390 388 385 384 378 371 370 369 368 367 365 364 362 359 361 364 364 367 370 372
322 327 329 329 328 327 323 323 327 326 325 325 322 323 324 322 323 325 325 326 329 331 333 335 335 337 340 342 343 343 347 344 343 347 349 348 351 361 372 375 376 378 383 387 387 385 384 379 373 370 369 369 368 367 366 364 361 362 364 366 367 370 372
317 325 327 326 327 327 320 320 325 325 323 324 323 325 326 323 322 324 321 319 324 331 334 333 335 337 338 339 339 342 347 347 344 342 345 347 350 359 371 375 376 377 378 381 384 381 378 377 375 371 372 372 369 367 367 365 363 364 367 368 369 369 372
317 323 326 325 324 320 315 318 325 327 327 327 326 327 329 328 325 322 318 319 329 337 335 332 333 334 335 339 339 340 346 354 355 350 345 347 350 358 370 376 376 374 371 373 379 378 374 375 374 371 372 373 370 369 368 366 365 367 369 370 369 370 372
315 321 324 323 320 315 318 326 329 329 329 328 326 327 329 330 330 327 326 329 334 337 335 332 334 335 339 343 344 343 347 353 357 352 348 350 349 352 365 373 373 372 372 374 377 377 375 374 372 371 371 372 371 370 369 368 367 368 371 371 370 372 374
315 320 322 318 316 319 326 332 334 331 329 330 329 329 331 331 331 332 334 335 336 337 334 333 336 339 340 341 342 343 340 342 346 345 346 353 352 350 360 370 375 377 378 380 379 378 376 373 371 370 371 372 372 371 371 371 369 368 371 372 372 373 375
318 318 318 317 320 327 331 333 334 332 332 332 328 324 328 330 329 332 336 337 341 342 335 331 335 336 335 335 339 341 337 336 339 336 336 341 343 345 352 364 379 384 379 377 380 378 375 373 371 370 371 372 372 373 373 372 369 370 373 375 374 375 376
321 316 315 320 323 326 330 333 335 336 336 336 331 327 331 334 333 339 344 342 342 342 338 339 343 341 337 335 335 335 332 332 335 333 333 335 335 340 343 346 365 380 378 373 376 378 375 373 372 370 371 372 373 374 374 372 371 373 375 377 377 376 377
322 319 316 320 320 320 328 337 341 339 336 337 338 333 333 339 341 343 347 344 342 345 345 346 349 348 344 340 337 333 331 331 333 331 331 332 331 337 342 337 348 369 376 375 374 377 377 374 371 371 372 373 374 375 375 373 371 373 376 377 378 378 378
320 319 318 319 318 322 335 344 342 338 335 337 338 329 328 344 352 347 347 346 345 348 350 351 351 348 343 339 338 335 332 331 331 332 335 335 332 335 340 339 347 365 373 374 374 376 376 374 372 372 372 374 375 376 376 374 372 374 376 377 378 378 377
320 321 320 320 321 329 343 345 338 336 336 338 334 322 325 346 355 347 348 349 347 351 354 353 350 348 344 343 341 339 335 332 333 337 341 344 344 341 339 348 364 373 374 375 378 377 375 374 372 372 374 376 376 376 376 374 373 375 376 377 377 376 375
323 324 323 322 325 337 347 342 336 338 337 333 326 324 334 350 349 344 347 347 346 351 354 353 354 353 350 348 345 342 338 337 340 344 347 352 352 342 334 353 373 378 376 377 377 374 373 374 371 372 375 376 376 377 376 375 375 375 376 376 377 375 374
323 325 325 323 326 336 341 338 336 337 333 328 328 336 347 348 342 344 346 345 346 351 352 354 355 352 349 348 348 346 342 343 349 353 353 357 357 349 351 366 375 375 374 376 373 371 373 373 371 372 376 377 378 377 376 376 376 375 375 376 375 373 372
323 322 323 323 326 333 335 337 339 336 334 335 341 346 345 342 342 346 346 346 350 351 350 352 352 350 349 348 349 350 348 346 351 356 360 363 361 360 368 373 371 370 372 373 372 371 372 372 372 375 377 377 377 376 376 376 375 374 375 374 373 371 370
321 317 321 326 330 333 331 336 340 339 340 344 346 343 342 342 344 345 346 350 352 351 351 351 350 350 350 349 352 358 358 352 351 355 358 360 359 363 369 370 367 368 373 375 374 372 371 372 373 375 376 375 374 374 376 374 373 373 373 371 370 369 367
330 327 331 334 336 336 335 338 341 341 341 343 343 342 343 342 341 345 350 352 352 353 354 354 354 354 354 354 357 358 357 357 357 359 360 359 359 363 368 369 368 370 373 375 374 372 373 373 373 373 373 372 373 374 374 372 371 371 370 369 368 366 363
342 341 342 341 340 338 336 337 339 337 338 339 341 342 342 340 341 346 350 349 349 350 352 355 357 356 354 354 352 348 349 349 347 349 356 360 361 363 366 369 369 369 371 371 371 373 374 373 372 372 372 372 373 372 371 371 371 369 367 366 365 364 361
342 345 347 346 345 345 339 337 338 337 336 338 339 342 342 342 342 345 345 345 346 347 348 350 351 349 348 350 348 345 346 346 344 345 348 349 351 354 357 362 367 369 370 371 372 373 373 372 372 371 370 370 370 369 368 368 367 365 365 364 363 362 360
344 345 345 342 341 343 341 338 339 339 338 337 338 340 340 340 339 338 337 337 338 341 345 347 347 347 346 346 346 346 346 345 344 344 345 349 350 348 346 349 354 357 360 362 364 365 366 367 368 368 367 367 366 365 365 365 364 363 362 361 361 360 359
343 344 342 340 341 342 341 338 338 338 337 336 337 336 335 334 334 333 332 332 331 333 336 340 343 345 345 344 344 345 345 345 345 344 344 347 348 346 345 347 349 350 350 351 353 356 359 362 363 364 364 363 363 363 363 363 362 361 360 359 359 357 356
341 342 341 341 343 344 342 338 335 335 335 334 334 333 331 330 330 330 329 328 328 328 329 330 333 338 341 344 345 345 344 344 345 345 345 347 348 346 345 347 348 349 351 353 355 358 360 362 362 362 362 361 361 361 361 361 360 358 357 356 355 353 353
340 340 340 341 344 344 341 337 334 334 334 333 333 332 330 330 330 330 329 328 327 327 327 327 327 328 331 335 340 343 344 345 346 345 344 346 348 347 348 350 352 353 354 357 358 358 359 359 359 359 360 360 358 358 358 357 357 356 355 354 352 351 351
339 338 338 339 341 339 336 334 334 334 333 334 334 332 331 331 331 331 331 330 329 329 328 327 327 327 328 328 330 334 337 340 344 345 344 345 348 350 352 354 355 356 356 357 356 356 356 356 355 356 356 356 356 357 356 356 355 354 354 353 351 349 349
338 337 337 337 338 337 334 333 332 331 332 333 333 332 331 331 331 331 331 330 329 328 327 326 326 327 328 327 326 328 329 330 333 338 342 344 346 348 351 352 353 354 355 355 354 353 353 353 353 353 353 353 354 355 355 354 354 353 352 351 350 349 349

ECMWFFLT2_925_thetae_042.txt.gz
Theta_e
328 325 328 327 322 321 322 317 313 316 323 320 313 314 319 314 313 318 317 319 332 336 336 342 342 342 344 345 346 346 346 348 348 350 350 347 348 348 347 349 348 348 348 347 346 346 349 350 350 351 352 354 356 358 359 359 359 360 360 360 359 359 359
326 326 327 327 327 327 321 313 315 322 323 322 318 314 314 311 312 318 315 313 320 321 331 351 348 341 345 345 347 347 346 348 347 349 350 348 348 348 347 349 349 348 349 348 347 347 348 351 350 351 352 353 355 357 359 359 359 360 361 361 360 360 360
326 328 326 324 327 327 322 319 322 323 315 312 316 314 313 311 312 314 313 315 318 317 330 350 343 340 347 344 346 348 346 348 347 346 349 348 348 349 348 349 349 349 349 348 347 347 348 350 351 352 353 353 355 356 358 359 359 360 360 361 361 361 360
325 327 324 318 320 326 326 324 322 325 318 312 313 315 314 315 315 315 314 315 319 327 340 345 339 344 347 342 346 349 345 348 347 345 347 348 348 349 348 349 349 350 349 348 348 347 348 350 352 352 353 354 355 356 358 359 360 360 360 361 361 361 361
321 320 323 320 320 323 322 319 317 317 317 316 315 314 315 316 319 321 317 313 321 343 353 344 342 346 343 342 345 346 346 347 345 346 346 346 348 348 348 349 349 349 349 348 347 348 349 350 352 353 354 355 356 357 358 360 360 361 361 361 361 361 361
315 318 326 327 325 326 323 319 317 316 316 316 311 313 317 314 315 323 322 314 323 351 356 343 344 345 342 342 343 343 346 346 345 346 346 346 348 348 348 348 348 349 350 350 348 349 349 350 353 353 354 356 357 357 359 360 361 361 361 361 361 362 362
319 323 328 326 325 328 326 323 323 321 320 315 309 315 322 315 312 321 321 314 325 357 365 348 344 346 342 340 341 343 344 343 345 346 345 346 348 348 348 347 347 349 350 351 350 349 350 351 353 354 355 356 357 358 360 360 362 362 362 362 362 362 362
321 324 327 327 327 327 324 323 326 323 320 318 316 325 331 319 311 315 314 311 322 355 367 347 346 355 351 342 340 341 343 344 346 345 345 347 347 349 349 347 349 349 350 353 354 353 352 351 353 355 355 357 357 358 359 360 362 363 363 363 363 363 363
317 318 320 320 322 324 322 323 325 324 324 322 320 325 326 318 315 315 311 309 324 359 363 335 339 350 347 348 346 342 343 346 347 346 347 348 348 349 349 349 350 350 352 356 357 357 353 351 353 355 355 357 357 357 359 360 362 363 363 364 364 363 363
314 314 315 320 322 321 322 324 323 323 325 321 318 317 313 315 321 319 313 314 329 359 355 329 330 333 331 345 352 345 344 346 348 349 348 349 350 350 351 351 351 352 354 357 358 358 354 351 353 355 355 357 357 357 359 360 361 364 364 365 365 364 364
315 314 321 335 335 320 316 321 321 322 325 321 320 316 310 319 324 317 325 336 330 332 338 330 331 329 325 335 345 348 349 347 348 351 350 350 351 350 351 351 351 353 355 355 357 357 355 351 352 355 355 356 357 357 358 359 361 363 364 365 365 365 365
320 321 325 333 333 321 317 320 319 321 325 322 320 314 314 327 320 308 331 354 329 322 340 338 331 332 331 336 343 349 353 348 346 350 350 351 349 349 351 351 351 354 354 354 355 355 355 352 352 354 355 356 357 357 358 359 360 362 363 365 365 365 365
323 325 325 326 329 327 323 323 320 321 324 320 318 317 320 329 318 309 332 355 338 340 355 342 333 335 336 343 348 347 349 349 347 350 351 350 348 347 350 350 351 353 353 355 354 354 354 353 351 353 354 355 357 357 357 358 359 361 363 364 365 366 365
322 324 326 325 326 327 325 324 323 322 323 322 320 321 324 325 322 321 335 346 344 352 358 345 342 353 353 353 352 348 348 348 347 353 356 353 349 347 348 350 351 351 352 354 355 354 355 354 352 352 354 355 356 357 357 358 358 360 362 363 365 365 366
318 322 326 325 324 325 323 323 327 323 322 324 321 322 325 323 324 326 330 333 334 344 354 350 353 368 363 348 348 358 361 356 352 352 354 352 350 348 348 349 351 351 352 353 354 356 357 354 352 352 354 355 356 357 357 357 358 359 360 363 364 365 365
316 319 323 323 322 324 319 319 324 324 321 321 320 323 326 324 325 328 326 325 330 340 348 345 344 357 354 342 353 373 374 372 369 361 355 352 351 351 351 353 355 354 353 355 356 357 356 354 352 352 354 355 356 356 357 357 357 359 360 362 363 364 365
322 321 321 321 320 317 315 317 322 326 325 326 325 326 328 328 329 328 322 323 335 344 343 336 336 342 344 349 362 365 365 377 382 373 364 358 353 354 356 357 359 357 354 355 357 358 356 353 352 354 354 355 356 357 357 357 357 357 359 361 362 363 365
325 325 322 322 317 313 317 325 327 328 327 328 329 329 331 330 327 332 333 333 338 342 337 337 342 340 338 344 351 350 350 362 373 374 370 363 357 358 357 356 357 356 356 357 356 355 355 354 355 355 354 356 357 357 357 358 357 357 358 360 361 363 364
327 329 324 318 315 322 337 342 334 330 329 330 336 342 349 346 336 345 360 353 345 344 340 343 351 347 341 344 349 349 347 351 359 365 367 365 362 359 359 358 357 355 357 359 358 355 354 355 356 356 355 356 357 357 358 357 357 357 358 359 361 362 363
327 327 322 318 323 335 348 344 333 334 334 332 338 347 360 363 352 357 369 361 354 355 349 347 348 342 343 350 353 353 353 352 351 350 352 357 359 359 360 362 365 364 358 355 355 354 353 355 358 358 357 357 358 358 359 358 357 358 358 358 360 361 363
327 326 321 321 325 328 336 340 337 338 338 335 343 350 358 365 360 357 362 364 363 360 358 359 349 340 349 360 355 352 355 355 352 349 346 346 351 358 363 362 362 360 354 353 353 353 353 355 357 359 359 358 359 359 359 358 359 358 358 358 359 361 362
330 327 322 321 321 323 335 347 344 343 344 345 354 357 357 365 365 357 360 369 368 363 368 373 361 354 369 374 358 354 356 354 354 356 354 352 353 356 359 362 361 354 351 354 354 355 358 358 357 359 360 359 360 360 359 360 359 359 359 358 358 360 361
329 324 322 322 320 326 345 355 343 339 345 349 355 355 354 366 367 356 358 367 366 364 370 374 372 378 388 374 358 355 356 353 353 355 357 358 359 358 355 358 360 353 350 355 355 356 360 361 360 361 361 360 361 361 361 361 360 359 359 358 358 360 360
330 326 323 321 322 330 347 350 340 338 345 348 344 340 347 364 364 356 358 361 361 361 361 364 372 382 383 369 357 354 353 351 351 353 354 356 358 359 356 355 356 349 347 354 359 357 357 360 362 364 363 363 362 361 362 361 360 360 360 359 359 359 360
335 331 325 323 328 340 348 344 341 342 342 339 334 333 348 363 361 359 361 359 358 358 358 361 365 365 363 358 352 349 349 349 350 350 351 351 352 353 353 353 355 354 350 351 355 356 356 358 361 362 364 364 362 362 363 362 361 362 361 360 360 359 360
340 337 333 328 330 340 342 339 343 344 335 334 337 344 356 359 357 360 359 356 356 356 354 356 356 353 351 350 348 347 347 348 348 348 348 349 349 349 350 350 351 352 353 354 356 358 359 360 360 362 364 364 363 363 363 362 363 362 362 362 361 359 360
340 342 344 339 336 339 339 339 348 352 345 344 349 355 355 353 354 356 354 353 354 353 351 352 350 348 348 347 347 347 346 346 347 346 346 347 347 347 348 347 348 351 354 354 353 357 361 362 363 364 364 364 364 364 364 364 364 364 364 363 362 361 361
342 345 349 346 342 340 338 339 347 352 351 350 353 353 351 352 352 351 351 351 349 348 349 349 347 347 347 346 346 346 346 345 346 346 346 346 345 345 345 345 346 348 351 351 351 354 359 361 363 365 364 364 364 364 365 366 365 365 365 364 364 365 364
343 343 344 343 340 338 337 338 342 344 345 346 347 348 349 349 347 347 347 346 345 345 346 346 346 347 346 345 345 344 344 344 344 345 345 345 345 346 344 343 344 346 348 349 348 349 352 355 359 362 364 363 362 362 365 366 366 367 367 367 367 368 367
343 342 342 340 338 338 337 336 335 336 337 339 339 340 341 341 339 339 338 337 338 339 339 339 341 342 343 345 345 344 344 344 343 343 343 342 343 345 345 344 344 345 346 347 347 347 348 349 351 355 358 360 360 361 363 366 367 368 369 370 371 370 369
342 343 345 342 339 338 338 336 334 333 332 332 332 333 333 332 331 331 331 331 331 331 332 334 334 335 337 340 342 343 343 343 343 343 342 341 342 343 344 345 345 345 345 346 347 347 347 347 349 351 353 354 354 356 359 363 365 367 368 370 370 369 369
342 344 344 343 341 339 337 336 337 336 333 330 329 329 329 329 328 328 328 328 328 328 329 330 330 330 332 333 335 337 338 339 339 340 341 342 342 342 342 344 345 345 344 344 345 345 345 346 347 350 351 352 351 351 354 356 359 363 365 365 365 365 365
344 344 342 341 343 342 338 337 336 336 335 333 330 328 327 327 328 328 327 327 327 327 328 328 329 329 329 330 331 332 332 333 334 335 337 340 342 343 342 343 344 344 342 341 342 342 342 343 344 347 350 351 351 351 352 354 356 359 359 359 359 358 356
345 345 342 342 344 343 340 338 336 334 333 333 331 330 328 327 327 327 327 326 326 326 326 326 327 328 329 330 330 330 331 331 332 333 335 338 340 342 343 342 342 342 341 340 340 341 341 342 343 345 347 349 350 351 352 353 353 354 353 352 350 349 348
343 342 340 342 343 341 338 338 336 335 334 333 331 329 328 327 327 326 326 326 326 326 325 325 325 328 329 330 330 330 329 328 329 332 334 336 338 341 343 343 342 341 341 341 341 341 342 343 343 345 347 348 347 347 348 348 348 349 348 347 345 345 344
339 338 338 340 341 339 337 336 336 336 337 334 331 330 330 328 327 325 325 326 326 326 326 325 325 327 329 330 329 329 328 327 328 330 332 334 336 338 340 343 343 343 342 342 341 342 343 343 344 346 346 346 346 346 346 346 344 344 344 344 343 343 342
337 337 336 337 339 338 337 336 336 336 336 334 331 331 332 331 329 327 326 326 326 325 325 326 325 326 329 331 330 327 326 326 326 328 330 332 333 334 337 340 342 344 344 344 343 343 344 344 345 345 346 346 346 345 346 345 344 342 341 341 341 341 341

ECMWFFLT2_925_thetae_045.txt.gz
Theta_e
327 324 326 325 322 322 320 316 313 316 322 318 312 316 320 315 313 316 317 320 327 330 333 338 337 340 344 344 345 343 343 345 345 345 344 342 342 341 342 344 344 345 345 343 343 342 342 344 344 345 347 349 351 351 352 352 353 353 354 355 356 356 356
324 324 325 325 323 325 320 313 315 319 320 318 316 314 312 311 312 317 319 314 315 319 328 343 344 340 343 344 344 344 344 345 346 346 345 343 343 342 342 344 344 345 346 344 343 343 342 343 344 345 346 349 350 351 352 352 353 353 354 355 356 356 356
323 325 323 322 323 325 321 319 320 320 314 312 316 314 311 310 310 313 316 316 316 317 326 339 340 340 345 344 344 345 344 345 345 345 346 344 344 343 342 343 344 344 345 345 343 343 343 343 344 345 346 348 350 351 352 352 353 353 354 354 355 356 356
322 324 322 317 319 323 324 321 319 320 318 312 313 315 312 312 313 313 311 312 316 322 332 340 340 345 347 341 344 346 342 345 345 343 345 345 345 345 343 342 344 344 344 344 343 343 343 343 344 345 345 347 350 351 352 353 353 353 354 354 355 356 356
320 319 321 319 319 321 321 317 315 315 317 316 314 315 314 315 319 320 314 308 314 332 346 345 343 350 348 342 343 344 342 343 344 343 344 345 345 346 344 343 343 343 343 343 343 344 344 344 344 345 346 347 349 351 353 353 353 354 354 355 355 355 356
314 318 324 324 323 324 322 319 316 314 315 315 311 312 316 315 317 323 320 308 312 333 345 341 345 349 348 346 342 341 344 342 342 344 343 344 346 345 345 344 343 343 344 343 343 344 344 344 345 346 346 347 348 350 353 353 354 354 355 355 356 355 356
318 322 326 325 323 326 326 323 322 320 318 315 308 310 317 314 313 321 321 310 316 341 349 340 343 346 343 345 343 341 343 342 343 344 342 344 346 345 345 344 343 344 344 344 343 343 344 344 345 347 346 347 348 350 352 353 355 355 355 356 356 356 356
321 322 324 325 325 326 323 323 325 322 319 317 314 320 323 316 311 316 316 310 315 342 359 346 340 345 341 339 340 342 342 342 343 343 343 344 346 347 347 344 345 345 344 346 346 345 345 344 345 347 348 348 349 350 351 353 354 355 355 356 357 357 357
317 319 319 319 321 323 322 324 325 323 323 320 319 326 323 315 313 314 313 310 315 346 369 349 340 348 348 345 341 339 341 342 343 343 345 347 347 347 348 346 347 347 346 348 349 348 347 344 345 347 348 349 349 349 351 352 354 356 355 356 357 357 358
314 315 317 319 320 319 320 325 324 323 326 320 317 319 315 314 318 316 312 315 325 347 354 337 337 344 344 348 344 338 339 340 342 345 345 347 349 348 348 348 347 348 349 350 351 351 347 344 346 347 348 350 350 350 352 352 353 355 356 357 357 357 358
317 315 320 331 331 319 315 321 321 323 326 322 320 317 313 319 322 314 320 328 321 326 339 336 339 337 329 333 339 344 350 344 340 346 346 347 349 347 347 348 347 349 352 352 351 351 348 346 346 347 348 350 350 351 352 352 354 355 356 357 357 358 358
323 320 323 331 331 319 315 319 320 321 326 323 319 315 316 327 320 309 331 349 322 321 347 346 339 339 333 329 330 341 356 351 342 344 345 346 348 346 347 348 348 350 352 352 352 352 349 346 346 348 349 350 351 351 352 353 354 355 356 358 358 358 359
324 324 324 324 325 324 321 321 320 320 324 321 317 318 322 330 319 310 332 350 328 327 348 343 338 342 332 327 329 335 344 349 347 346 348 349 347 345 348 350 350 351 350 352 353 352 351 348 346 348 350 350 351 352 352 354 354 356 357 358 359 359 359
324 324 325 323 323 323 320 322 322 322 324 322 319 322 324 324 322 319 333 343 333 330 337 336 336 341 336 334 338 340 340 344 348 349 351 350 347 346 349 351 351 351 349 351 352 352 353 351 348 348 349 351 352 352 353 354 355 356 358 359 360 360 360
326 324 325 322 321 322 320 321 324 322 322 323 320 321 325 324 323 324 329 334 333 334 337 337 334 341 346 346 347 350 350 347 348 351 351 350 347 347 347 348 350 350 349 351 351 353 354 352 349 348 349 351 352 352 353 354 355 356 358 359 360 360 361
327 324 323 323 321 320 317 317 322 322 319 321 320 321 325 322 321 324 323 323 328 333 335 336 335 339 347 353 357 362 364 356 349 347 349 351 349 347 348 349 349 350 350 350 351 352 352 350 348 348 350 351 352 353 353 354 355 356 358 360 361 361 362
328 324 322 323 321 318 316 316 321 323 321 322 322 323 327 326 323 323 319 319 327 331 330 331 333 335 341 346 346 347 355 359 356 351 349 348 348 347 347 349 349 348 348 348 349 351 349 348 348 349 350 351 352 353 353 354 355 356 358 360 361 361 362
327 323 322 326 322 316 316 320 324 324 323 324 322 322 324 323 323 324 325 326 328 328 328 329 328 334 341 345 344 345 350 356 359 360 357 354 352 350 348 350 351 349 348 348 347 346 345 346 348 349 350 351 352 353 353 354 355 356 357 359 360 361 361
326 324 325 327 324 321 326 332 331 325 323 324 324 328 334 333 333 333 329 330 335 334 333 334 338 347 351 352 355 357 355 354 357 360 363 364 360 356 354 352 350 349 349 350 349 345 344 345 347 349 350 351 352 353 353 354 355 356 357 358 359 360 361
327 328 328 328 329 333 339 341 333 326 328 329 326 333 345 353 355 347 331 337 355 354 343 342 350 356 358 359 360 360 357 355 356 360 368 369 360 357 359 359 357 355 350 347 346 345 344 345 346 348 349 350 351 352 353 354 355 355 356 357 358 359 360
327 329 328 327 327 329 330 334 334 330 331 331 328 334 346 359 360 353 346 353 364 356 346 349 354 357 358 362 364 358 354 355 354 356 361 360 357 357 359 359 357 352 346 344 344 344 345 347 347 347 349 349 350 352 353 354 354 355 355 356 357 358 359
328 327 328 328 325 325 329 337 342 339 336 337 333 339 352 364 361 354 359 360 355 349 347 349 353 357 361 368 371 364 356 352 351 353 354 353 355 356 355 360 360 351 345 345 346 345 347 348 348 348 349 349 350 352 352 354 354 354 355 355 356 357 358
327 326 328 327 325 331 340 342 343 340 335 341 337 331 344 363 365 357 362 361 352 347 345 345 352 357 365 377 378 367 356 351 350 352 353 352 353 352 351 357 361 353 347 346 347 348 348 348 349 350 351 351 351 352 353 354 354 354 355 355 355 356 357
325 325 328 328 327 337 344 340 339 338 337 342 333 320 333 360 366 358 362 366 363 358 351 352 363 367 366 375 373 358 350 349 348 349 351 351 352 351 348 348 351 351 350 350 351 351 350 350 351 351 352 354 354 353 353 354 354 355 355 355 355 355 356
329 332 336 334 334 342 343 337 337 338 339 336 326 323 339 363 364 358 359 361 363 365 362 363 368 366 359 360 356 348 346 349 348 346 346 347 347 348 347 346 348 350 350 351 353 353 353 354 355 354 355 355 355 355 355 354 355 355 355 355 355 355 356
339 343 345 341 337 340 339 335 336 340 337 331 330 340 354 360 358 356 355 353 355 358 358 358 357 353 349 348 347 346 347 348 348 346 346 346 346 345 345 345 347 348 349 349 350 352 356 357 358 359 358 357 356 357 356 356 357 356 356 356 356 356 356
344 347 349 347 342 339 336 336 339 342 341 341 345 353 356 354 353 353 351 351 351 350 351 352 350 349 348 346 346 346 346 346 346 346 345 346 347 346 345 345 345 347 349 349 346 348 354 357 360 360 360 359 359 357 357 358 358 357 357 357 357 357 357
349 352 351 348 344 339 336 337 339 338 337 338 345 353 354 352 351 349 349 349 348 346 349 349 347 347 347 346 346 346 345 345 344 343 344 344 345 345 345 345 345 346 348 347 346 347 350 354 357 359 359 360 359 358 359 359 359 359 359 358 358 358 357
347 351 348 344 342 338 336 337 337 334 330 330 335 343 348 348 346 346 347 347 345 344 346 346 347 348 347 346 345 345 344 344 343 343 343 343 343 345 345 345 344 345 346 347 346 346 347 349 353 355 356 358 358 358 359 360 361 361 360 360 360 359 358
342 344 343 341 341 339 336 336 335 332 329 327 330 334 337 338 338 338 340 340 341 341 342 343 344 344 343 342 341 340 341 341 341 342 342 342 342 343 345 345 345 344 345 346 346 347 346 346 348 351 353 353 353 354 356 359 361 362 362 362 362 360 360
342 341 340 341 341 339 337 335 334 333 331 328 328 329 330 330 331 332 332 334 335 336 337 337 337 336 337 337 337 337 337 338 338 340 341 342 343 343 344 345 344 343 344 345 345 345 344 343 345 348 350 351 351 351 353 356 358 361 363 364 363 362 361
343 342 341 340 340 338 336 336 335 333 332 330 327 327 327 327 328 328 329 330 331 331 332 332 332 333 333 334 335 336 336 337 338 339 340 342 343 343 342 342 342 341 341 342 343 342 342 342 344 346 347 349 350 352 353 354 356 358 360 362 362 363 364
341 341 339 339 341 339 336 336 336 334 332 331 327 325 325 326 326 326 327 327 328 329 330 330 331 332 333 334 335 335 335 336 337 338 340 342 342 342 342 341 341 341 341 341 342 342 342 343 345 345 346 347 348 350 352 353 355 357 357 358 358 360 362
339 339 340 342 345 343 336 334 336 335 333 332 329 327 326 325 325 325 325 325 326 327 329 330 330 332 332 332 333 333 334 335 336 337 339 340 341 342 343 342 342 342 342 342 343 343 343 344 345 345 346 345 345 346 347 350 354 356 356 357 357 358 359
338 338 340 341 342 340 335 333 334 334 333 333 331 329 328 327 325 325 324 325 326 326 327 328 328 329 330 330 330 331 332 333 334 334 336 338 339 340 341 341 342 342 342 343 343 343 343 344 344 345 346 345 345 344 343 345 349 351 353 353 353 353 352
337 337 338 339 338 337 335 333 334 334 333 332 331 330 330 328 326 325 325 325 325 325 327 327 327 327 327 327 328 329 329 330 331 331 332 333 335 336 336 337 337 338 338 339 339 340 340 341 343 345 346 345 345 344 342 342 344 345 345 344 343 342 342
336 336 337 336 336 335 333 333 333 333 332 331 331 331 330 329 328 327 326 326 325 324 325 327 327 326 325 325 325 326 328 329 329 329 329 329 330 331 332 332 332 332 333 334 336 337 338 339 340 343 345 346 346 344 341 340 341 341 341 339 339 338 339

ECMWFFLT2_925_thetae_048.txt.gz
Theta_e
325 325 326 324 324 322 319 317 316 317 321 318 314 316 320 315 312 318 320 321 325 327 330 339 334 330 336 339 341 341 340 342 342 342 343 342 342 343 343 345 345 346 346 344 343 342 342 342 343 344 346 347 349 350 351 351 352 352 352 353 353 354 354
322 323 326 325 323 325 320 315 317 319 319 319 317 314 314 313 313 318 319 316 317 318 326 343 340 333 336 338 341 342 341 342 341 342 343 341 341 342 342 344 344 345 345 344 343 342 342 343 342 343 345 346 348 349 350 350 351 352 352 352 353 353 354
322 322 323 322 322 323 320 320 322 320 317 314 316 315 314 314 315 316 317 318 318 317 326 341 337 335 340 339 340 342 341 342 342 341 342 341 341 341 341 342 343 344 345 343 342 342 342 342 342 343 344 345 347 348 349 350 350 351 352 352 353 353 354
321 322 321 318 318 322 321 321 320 321 319 314 315 317 315 315 317 317 314 313 315 321 334 342 339 341 341 337 340 343 340 341 342 341 342 342 342 341 340 341 342 342 343 342 342 342 342 342 342 343 343 344 346 347 349 350 350 350 351 352 352 353 354
318 319 320 319 319 320 319 318 315 315 317 316 315 315 315 316 318 318 314 310 315 332 345 345 344 346 341 337 340 341 340 341 341 341 342 342 342 342 340 340 340 341 342 342 341 342 342 342 342 342 342 343 345 346 348 349 349 350 350 351 352 353 353
314 317 322 322 323 323 320 319 317 315 315 315 314 314 315 315 316 320 318 309 314 334 342 341 347 347 341 339 338 339 340 340 340 342 341 342 343 343 341 340 339 339 341 342 341 341 342 342 342 342 342 343 344 346 347 348 349 350 350 351 352 352 353
318 321 324 321 322 323 322 322 321 319 318 314 312 312 315 314 314 320 320 312 318 338 340 337 345 349 344 341 339 341 341 338 340 342 340 342 344 344 342 340 339 340 341 341 341 341 342 341 341 342 342 343 344 345 346 348 349 349 350 351 351 352 353
322 323 324 322 323 322 320 321 322 320 318 316 315 319 321 317 313 316 317 311 319 340 344 336 337 342 342 339 338 341 342 338 338 340 341 344 344 344 344 342 341 341 340 342 343 343 343 342 341 342 342 343 343 344 346 347 349 349 350 350 351 351 353
317 318 320 320 320 321 320 322 323 320 321 320 319 323 322 315 313 315 315 311 319 342 350 339 336 338 337 336 335 337 340 340 340 340 341 345 345 346 348 347 345 343 343 345 346 346 344 342 342 342 342 343 343 344 346 346 348 349 349 350 351 351 352
317 316 320 320 320 321 321 323 323 322 323 319 317 317 314 314 319 316 312 315 328 345 344 333 334 338 337 339 340 338 339 341 342 343 345 348 351 352 353 351 348 346 346 346 347 347 344 341 342 342 342 343 343 343 345 346 347 349 349 350 351 351 352
322 321 324 325 324 322 319 319 321 322 323 321 319 315 311 319 324 315 316 325 325 325 329 330 335 338 336 339 341 341 345 345 343 343 345 349 352 352 352 351 349 348 349 348 347 347 344 341 342 342 342 343 344 344 345 345 347 348 350 351 351 352 353
324 323 324 323 323 324 321 320 320 321 324 323 319 315 316 326 322 311 325 340 323 318 331 336 338 342 338 340 339 336 345 349 344 342 343 345 348 349 350 350 349 350 350 349 348 347 344 342 342 343 343 343 344 344 345 346 347 348 350 351 351 352 353
321 320 321 321 322 325 323 322 320 319 322 322 317 317 322 327 319 312 329 341 325 326 341 338 340 346 339 339 337 332 338 344 344 344 347 348 347 347 350 350 350 351 349 349 349 348 346 343 342 342 343 343 344 345 345 346 347 348 350 351 352 353 353
321 320 321 323 322 323 322 322 321 319 321 321 319 322 324 325 321 320 333 340 330 329 336 335 338 342 337 338 338 333 336 341 341 341 345 347 345 343 347 348 348 348 349 349 349 349 349 347 343 342 343 344 345 345 346 346 347 348 349 351 353 353 354
322 320 321 322 320 322 323 322 322 320 319 320 319 320 323 324 323 322 329 334 332 333 338 337 333 332 331 335 338 339 343 345 342 340 340 342 344 343 344 346 346 347 348 349 350 350 350 348 344 342 343 344 345 345 346 347 347 348 350 351 353 353 354
323 321 321 320 319 322 323 321 323 322 318 319 319 320 324 323 323 324 324 323 327 334 340 336 331 332 334 335 341 349 357 358 354 351 351 351 350 348 346 345 347 347 347 348 349 349 348 345 343 343 344 344 345 346 347 347 348 349 350 351 353 353 354
327 322 318 320 322 323 320 318 323 323 320 321 319 321 326 325 323 323 320 320 327 334 337 334 331 331 332 335 343 352 367 378 368 359 359 358 351 349 348 349 348 346 345 346 347 347 346 344 343 343 344 344 345 346 346 348 348 349 351 352 352 353 354
329 323 319 323 327 325 321 320 323 324 323 323 321 321 324 325 325 325 323 326 330 331 334 332 328 329 334 347 355 354 363 378 373 363 360 361 358 354 351 350 348 347 346 346 346 344 344 344 343 344 344 345 346 347 347 348 349 350 351 352 353 354 354
328 326 325 329 331 327 323 322 325 329 326 319 321 324 325 325 324 323 327 330 328 331 331 325 336 358 364 363 363 356 353 358 363 364 365 368 370 368 360 354 353 353 354 353 350 344 341 343 344 344 345 345 346 347 348 349 350 351 352 353 353 354 355
328 329 330 332 330 326 324 326 334 340 343 336 329 323 319 327 330 325 326 330 330 332 328 328 355 378 369 360 360 359 356 353 352 357 362 362 363 363 360 359 359 357 353 349 348 344 340 342 344 344 345 346 347 348 349 349 351 351 352 353 354 355 356
326 328 329 330 327 325 331 340 343 344 346 345 340 333 329 340 347 334 324 328 334 333 332 343 360 363 358 358 356 352 354 353 349 352 354 351 353 354 352 352 353 350 345 340 339 340 340 342 344 345 346 346 347 349 350 350 351 352 352 354 354 355 356
326 326 326 328 329 330 338 342 339 338 338 339 340 337 337 348 359 345 324 323 339 344 346 354 357 352 352 359 355 349 351 351 347 349 350 347 349 349 347 349 350 347 346 343 339 340 341 342 343 344 346 347 348 349 350 351 352 352 353 354 354 355 356
325 324 325 327 327 331 339 340 337 336 336 337 337 334 331 342 361 356 338 326 336 347 354 355 353 345 346 358 359 353 349 348 347 348 348 346 346 345 346 348 350 348 348 345 342 341 341 342 343 344 346 348 349 349 350 351 352 352 353 353 354 355 356
323 326 327 325 323 329 339 338 336 336 336 336 334 328 327 341 354 356 349 336 335 345 352 350 348 344 344 354 359 351 346 347 347 346 346 346 346 345 346 347 348 348 348 347 348 348 346 345 344 344 346 347 348 349 350 350 351 352 352 353 354 354 355
320 323 324 324 327 335 339 337 335 336 337 333 329 328 334 339 346 351 350 342 337 341 345 346 351 358 357 354 352 346 345 347 346 344 345 345 345 345 345 346 347 348 347 348 349 348 349 351 349 345 346 347 348 349 349 350 351 352 352 353 353 354 354
320 324 325 326 331 336 337 336 334 334 337 337 335 334 333 336 344 351 349 346 345 347 350 352 356 354 349 347 347 345 344 345 345 344 345 345 345 346 345 345 347 347 347 347 347 346 349 353 353 351 349 348 348 349 349 350 351 351 352 352 352 353 354
329 333 331 333 336 335 335 338 338 336 338 339 336 332 331 337 346 350 348 349 351 352 353 353 350 349 347 346 346 344 343 344 344 344 344 346 346 346 345 346 346 346 346 346 345 345 347 350 354 355 354 352 351 350 349 350 351 351 351 352 352 353 353
338 340 338 338 338 336 334 338 340 336 334 334 332 331 333 338 341 342 345 349 348 347 350 350 347 348 348 346 346 346 345 345 344 345 345 345 345 346 345 345 346 346 346 346 345 344 344 346 350 353 355 355 354 353 352 353 355 355 354 353 352 353 353
340 344 345 341 338 336 334 335 335 332 330 330 330 330 331 332 332 334 342 348 346 343 345 346 347 348 347 345 345 344 344 344 344 345 345 344 344 345 344 343 344 345 345 345 344 343 343 345 347 350 352 353 351 351 353 355 357 359 357 355 354 353 353
339 341 342 339 337 337 335 332 331 330 330 330 328 327 327 328 328 330 336 342 343 342 343 345 346 345 343 343 342 341 343 344 343 344 344 343 342 342 342 342 342 342 343 344 344 344 343 343 345 346 348 350 349 350 353 355 356 358 359 359 357 355 354
338 339 339 338 337 336 335 333 332 331 331 331 329 326 325 325 326 328 330 332 335 338 340 341 342 340 339 340 341 341 342 343 344 344 343 342 342 341 342 342 342 342 344 344 345 345 343 343 343 344 345 345 346 348 351 354 354 355 358 361 360 359 358
338 340 339 338 336 334 334 334 334 333 333 332 330 327 325 324 325 326 327 328 330 333 336 337 338 338 338 339 340 341 342 343 344 343 342 342 342 342 342 342 343 343 344 344 345 344 343 343 344 344 344 343 343 343 347 350 353 354 356 358 360 361 361
338 340 337 338 339 336 333 333 333 333 333 332 331 328 326 326 326 326 327 327 328 329 332 334 335 337 337 337 338 339 340 342 343 343 342 343 342 342 342 342 343 343 343 344 344 344 343 344 344 344 345 343 342 341 342 345 350 353 354 356 357 358 359
337 339 338 340 343 340 335 333 332 332 332 331 329 328 328 327 326 327 328 329 328 327 328 330 333 335 336 336 336 336 337 338 339 339 339 339 339 340 340 340 341 341 342 342 342 342 342 343 344 345 345 343 341 341 341 342 345 348 351 353 352 352 353
336 338 337 339 341 339 334 332 332 332 332 330 328 328 328 327 326 327 328 330 330 328 327 327 329 332 333 333 333 334 334 334 334 334 335 335 335 336 336 337 337 338 339 339 340 339 340 341 343 344 345 343 341 340 341 341 342 344 346 346 344 343 343
331 336 336 337 338 336 332 331 332 331 331 331 329 328 328 327 327 327 328 328 329 329 328 327 326 328 330 330 330 331 331 330 330 331 331 331 331 332 332 333 334 335 336 337 338 338 339 341 343 343 344 343 340 338 339 340 340 340 341 341 339 338 339
330 335 334 334 335 334 331 331 331 331 331 330 330 328 328 328 328 327 328 328 328 329 328 327 325 325 327 328 328 329 329 329 329 330 329 329 329 330 330 331 332 333 334 335 336 337 339 340 342 343 344 345 342 339 339 339 340 341 341 340 339 338 338